Wetterdaten: Freitag, 19.12.2014
Datum Zeit Temp. Aussen +5cm Feuchte Auss Luftdruck Regen Sonnenschein Regendauer Solar Windben
19.12.2014 00:00 12,0 C 10,6 C 94 % 1012,2 hPa 0,0 l/m 0 min 2 min 0 W/m 39,7 km/h (6 Bft)
19.12.2014 00:02 12,0 C 10,6 C 94 % 1012,1 hPa 0,0 l/m 0 min 2 min 0 W/m 41,8 km/h (6 Bft)
19.12.2014 00:06 12,0 C 10,6 C 94 % 1012,3 hPa 0,0 l/m 0 min 2 min 0 W/m 54,4 km/h (7 Bft)
19.12.2014 00:08 12,0 C 10,6 C 94 % 1012,2 hPa 0,0 l/m 0 min 2 min 0 W/m 50,2 km/h (7 Bft)
19.12.2014 00:10 12,0 C 10,6 C 94 % 1012,1 hPa 0,0 l/m 0 min 2 min 0 W/m 43,9 km/h (6 Bft)
19.12.2014 00:12 12,0 C 10,6 C 94 % 1012,2 hPa 0,0 l/m 0 min 2 min 0 W/m 62,8 km/h (8 Bft)
19.12.2014 00:14 12,0 C 10,6 C 94 % 1012,2 hPa 0,0 l/m 0 min 2 min 0 W/m 43,9 km/h (6 Bft)
19.12.2014 00:16 12,1 C 10,6 C 94 % 1012,2 hPa 0,0 l/m 0 min 2 min 0 W/m 46,0 km/h (6 Bft)
19.12.2014 00:18 12,1 C 10,6 C 94 % 1012,4 hPa 0,0 l/m 0 min 2 min 0 W/m 50,2 km/h (7 Bft)
19.12.2014 00:20 12,0 C 10,6 C 94 % 1012,3 hPa 0,0 l/m 0 min 2 min 0 W/m 58,6 km/h (7 Bft)
19.12.2014 00:22 12,0 C 10,6 C 94 % 1012,2 hPa 0,0 l/m 0 min 2 min 0 W/m 43,9 km/h (6 Bft)
19.12.2014 00:24 12,0 C 10,6 C 93 % 1012,3 hPa 0,0 l/m 0 min 2 min 0 W/m 43,9 km/h (6 Bft)
19.12.2014 00:26 12,0 C 10,6 C 93 % 1012,2 hPa 0,0 l/m 0 min 2 min 0 W/m 37,7 km/h (5 Bft)
19.12.2014 00:28 12,0 C 10,6 C 93 % 1012,2 hPa 0,0 l/m 0 min 2 min 0 W/m 52,3 km/h (7 Bft)
19.12.2014 00:30 12,0 C 10,6 C 93 % 1012,2 hPa 0,0 l/m 0 min 2 min 0 W/m 43,9 km/h (6 Bft)
19.12.2014 00:32 12,0 C 10,6 C 93 % 1012,2 hPa 0,0 l/m 0 min 2 min 0 W/m 43,9 km/h (6 Bft)
19.12.2014 00:34 12,0 C 10,6 C 93 % 1012,2 hPa 0,0 l/m 0 min 2 min 0 W/m 39,7 km/h (6 Bft)
19.12.2014 00:36 11,9 C 10,6 C 93 % 1012,2 hPa 0,0 l/m 0 min 2 min 0 W/m 46,0 km/h (6 Bft)
19.12.2014 00:38 12,0 C 10,6 C 93 % 1012,3 hPa 0,0 l/m 0 min 2 min 0 W/m 48,1 km/h (6 Bft)
19.12.2014 00:40 12,0 C 10,6 C 93 % 1012,2 hPa 0,0 l/m 0 min 2 min 0 W/m 46,0 km/h (6 Bft)
19.12.2014 00:42 12,0 C 10,6 C 93 % 1012,2 hPa 0,0 l/m 0 min 2 min 0 W/m 41,8 km/h (6 Bft)
19.12.2014 00:44 12,0 C 10,6 C 93 % 1012,2 hPa 0,0 l/m 0 min 2 min 0 W/m 41,8 km/h (6 Bft)
19.12.2014 00:46 12,0 C 10,6 C 93 % 1012,2 hPa 0,0 l/m 0 min 2 min 0 W/m 50,2 km/h (7 Bft)
19.12.2014 00:48 12,0 C 10,6 C 93 % 1012,3 hPa 0,0 l/m 0 min 2 min 0 W/m 43,9 km/h (6 Bft)
19.12.2014 00:50 12,0 C 10,6 C 93 % 1012,2 hPa 0,0 l/m 0 min 2 min 0 W/m 39,7 km/h (6 Bft)
19.12.2014 00:52 12,0 C 10,6 C 93 % 1012,2 hPa 0,0 l/m 0 min 2 min 0 W/m 41,8 km/h (6 Bft)
19.12.2014 00:54 12,0 C 10,6 C 93 % 1012,3 hPa 0,0 l/m 0 min 2 min 0 W/m 43,9 km/h (6 Bft)
19.12.2014 00:56 12,0 C 10,6 C 93 % 1012,3 hPa 0,0 l/m 0 min 2 min 0 W/m 50,2 km/h (7 Bft)
19.12.2014 00:58 12,0 C 10,6 C 93 % 1012,2 hPa 0,0 l/m 0 min 2 min 0 W/m 39,7 km/h (6 Bft)
19.12.2014 01:00 12,0 C 10,6 C 92 % 1012,2 hPa 0,0 l/m 0 min 2 min 0 W/m 46,0 km/h (6 Bft)
19.12.2014 01:02 12,0 C 10,6 C 92 % 1012,2 hPa 0,0 l/m 0 min 2 min 0 W/m 37,7 km/h (5 Bft)
19.12.2014 01:04 12,0 C 10,6 C 92 % 1012,2 hPa 0,0 l/m 0 min 2 min 0 W/m 41,8 km/h (6 Bft)
19.12.2014 01:06 12,0 C 10,6 C 92 % 1012,2 hPa 0,0 l/m 0 min 2 min 0 W/m 37,7 km/h (5 Bft)
19.12.2014 01:08 12,0 C 10,6 C 92 % 1012,2 hPa 0,0 l/m 0 min 2 min 0 W/m 43,9 km/h (6 Bft)
19.12.2014 01:10 12,0 C 10,6 C 92 % 1012,2 hPa 0,0 l/m 0 min 2 min 0 W/m 46,0 km/h (6 Bft)
19.12.2014 01:12 12,0 C 10,6 C 92 % 1012,3 hPa 0,0 l/m 0 min 2 min 0 W/m 50,2 km/h (7 Bft)
19.12.2014 01:14 12,1 C 10,6 C 92 % 1012,2 hPa 0,0 l/m 0 min 2 min 0 W/m 52,3 km/h (7 Bft)
19.12.2014 01:16 12,1 C 10,6 C 92 % 1012,2 hPa 0,0 l/m 0 min 2 min 0 W/m 52,3 km/h (7 Bft)
19.12.2014 01:18 12,1 C 10,6 C 92 % 1012,2 hPa 0,0 l/m 0 min 2 min 0 W/m 46,0 km/h (6 Bft)
19.12.2014 01:20 12,1 C 10,6 C 92 % 1012,1 hPa 0,0 l/m 0 min 2 min 0 W/m 46,0 km/h (6 Bft)
19.12.2014 01:22 12,0 C 10,6 C 92 % 1012,1 hPa 0,0 l/m 0 min 2 min 0 W/m 50,2 km/h (7 Bft)
19.12.2014 01:24 12,0 C 10,0 C 92 % 1012,1 hPa 0,0 l/m 0 min 2 min 0 W/m 46,0 km/h (6 Bft)
19.12.2014 01:26 12,0 C 10,0 C 92 % 1012,1 hPa 0,0 l/m 0 min 2 min 0 W/m 50,2 km/h (7 Bft)
19.12.2014 01:28 11,9 C 10,0 C 92 % 1012,2 hPa 0,0 l/m 0 min 2 min 0 W/m 52,3 km/h (7 Bft)
19.12.2014 01:30 11,9 C 10,0 C 93 % 1012,1 hPa 0,0 l/m 0 min 2 min 0 W/m 50,2 km/h (7 Bft)
19.12.2014 01:32 11,8 C 10,0 C 93 % 1012,1 hPa 0,0 l/m 0 min 2 min 0 W/m 37,7 km/h (5 Bft)
19.12.2014 01:34 11,8 C 10,0 C 93 % 1012,2 hPa 0,0 l/m 0 min 2 min 0 W/m 33,5 km/h (5 Bft)
19.12.2014 01:36 11,7 C 10,0 C 93 % 1012,0 hPa 0,0 l/m 0 min 2 min 0 W/m 46,0 km/h (6 Bft)
19.12.2014 01:38 11,7 C 10,0 C 93 % 1012,1 hPa 0,0 l/m 0 min 2 min 0 W/m 33,5 km/h (5 Bft)
19.12.2014 01:40 11,7 C 10,0 C 93 % 1012,0 hPa 0,0 l/m 0 min 2 min 0 W/m 37,7 km/h (5 Bft)
19.12.2014 01:42 11,7 C 10,0 C 94 % 1012,1 hPa 0,0 l/m 0 min 2 min 0 W/m 39,7 km/h (6 Bft)
19.12.2014 01:44 11,6 C 10,0 C 94 % 1012,0 hPa 0,0 l/m 0 min 2 min 0 W/m 46,0 km/h (6 Bft)
19.12.2014 01:46 11,6 C 10,0 C 94 % 1011,9 hPa 0,0 l/m 0 min 2 min 0 W/m 35,6 km/h (5 Bft)
19.12.2014 01:48 11,6 C 10,0 C 94 % 1012,0 hPa 0,0 l/m 0 min 2 min 0 W/m 37,7 km/h (5 Bft)
19.12.2014 01:50 11,6 C 10,0 C 94 % 1012,0 hPa 0,0 l/m 0 min 2 min 0 W/m 50,2 km/h (7 Bft)
19.12.2014 01:52 11,6 C 10,0 C 94 % 1012,0 hPa 0,0 l/m 0 min 2 min 0 W/m 39,7 km/h (6 Bft)
19.12.2014 01:54 11,6 C 10,0 C 94 % 1011,9 hPa 0,0 l/m 0 min 2 min 0 W/m 54,4 km/h (7 Bft)
19.12.2014 01:56 11,6 C 10,0 C 94 % 1012,0 hPa 0,0 l/m 0 min 2 min 0 W/m 43,9 km/h (6 Bft)
19.12.2014 01:58 11,6 C 10,0 C 94 % 1012,2 hPa 0,0 l/m 0 min 2 min 0 W/m 41,8 km/h (6 Bft)
19.12.2014 02:00 11,6 C 10,0 C 94 % 1011,9 hPa 0,0 l/m 0 min 2 min 0 W/m 41,8 km/h (6 Bft)
19.12.2014 02:02 11,6 C 10,0 C 94 % 1012,2 hPa 0,0 l/m 0 min 2 min 0 W/m 41,8 km/h (6 Bft)
19.12.2014 02:04 11,6 C 10,0 C 94 % 1012,0 hPa 0,0 l/m 0 min 2 min 0 W/m 41,8 km/h (6 Bft)
19.12.2014 02:06 11,6 C 10,0 C 94 % 1011,9 hPa 0,0 l/m 0 min 2 min 0 W/m 46,0 km/h (6 Bft)
19.12.2014 02:08 11,6 C 10,0 C 94 % 1012,0 hPa 0,0 l/m 0 min 2 min 0 W/m 46,0 km/h (6 Bft)
19.12.2014 02:10 11,6 C 10,0 C 94 % 1011,8 hPa 0,0 l/m 0 min 2 min 0 W/m 62,8 km/h (8 Bft)
19.12.2014 02:12 11,6 C 10,0 C 94 % 1012,0 hPa 0,0 l/m 0 min 2 min 0 W/m 46,0 km/h (6 Bft)
19.12.2014 02:14 11,6 C 10,0 C 94 % 1011,8 hPa 0,0 l/m 0 min 2 min 0 W/m 37,7 km/h (5 Bft)
19.12.2014 02:16 11,6 C 10,0 C 94 % 1011,9 hPa 0,0 l/m 0 min 2 min 0 W/m 43,9 km/h (6 Bft)
19.12.2014 02:18 11,6 C 10,0 C 94 % 1011,8 hPa 0,0 l/m 0 min 2 min 0 W/m 31,4 km/h (5 Bft)
19.12.2014 02:20 11,6 C 10,0 C 94 % 1011,9 hPa 0,0 l/m 0 min 2 min 0 W/m 31,4 km/h (5 Bft)
19.12.2014 02:22 11,6 C 10,0 C 94 % 1011,9 hPa 0,0 l/m 0 min 2 min 0 W/m 39,7 km/h (6 Bft)
19.12.2014 02:24 11,6 C 10,0 C 94 % 1011,8 hPa 0,0 l/m 0 min 2 min 0 W/m 33,5 km/h (5 Bft)
19.12.2014 02:26 11,6 C 10,0 C 94 % 1011,8 hPa 0,0 l/m 0 min 2 min 0 W/m 43,9 km/h (6 Bft)
19.12.2014 02:28 11,6 C 10,0 C 94 % 1011,9 hPa 0,0 l/m 0 min 2 min 0 W/m 29,3 km/h (5 Bft)
19.12.2014 02:30 11,6 C 10,0 C 94 % 1011,9 hPa 0,0 l/m 0 min 2 min 0 W/m 39,7 km/h (6 Bft)
19.12.2014 02:32 11,6 C 10,0 C 94 % 1011,9 hPa 0,0 l/m 0 min 2 min 0 W/m 39,7 km/h (6 Bft)
19.12.2014 02:34 11,6 C 10,0 C 94 % 1011,9 hPa 0,0 l/m 0 min 2 min 0 W/m 48,1 km/h (6 Bft)
19.12.2014 02:36 11,6 C 10,0 C 94 % 1012,0 hPa 0,0 l/m 0 min 2 min 0 W/m 29,3 km/h (5 Bft)
19.12.2014 02:38 11,6 C 10,0 C 94 % 1012,0 hPa 0,0 l/m 0 min 2 min 0 W/m 23,0 km/h (4 Bft)
19.12.2014 02:40 11,6 C 10,0 C 94 % 1011,9 hPa 0,0 l/m 0 min 2 min 0 W/m 39,7 km/h (6 Bft)
19.12.2014 02:42 11,6 C 10,0 C 94 % 1012,0 hPa 0,0 l/m 0 min 2 min 0 W/m 37,7 km/h (5 Bft)
19.12.2014 02:44 11,6 C 10,0 C 94 % 1012,0 hPa 0,0 l/m 0 min 2 min 0 W/m 23,0 km/h (4 Bft)
19.12.2014 02:46 11,6 C 10,0 C 94 % 1012,0 hPa 0,0 l/m 0 min 2 min 0 W/m 29,3 km/h (5 Bft)
19.12.2014 02:48 11,6 C 10,0 C 94 % 1012,1 hPa 0,0 l/m 0 min 2 min 0 W/m 33,5 km/h (5 Bft)
19.12.2014 02:50 11,6 C 10,0 C 94 % 1012,2 hPa 0,0 l/m 0 min 2 min 0 W/m 41,8 km/h (6 Bft)
19.12.2014 02:52 11,6 C 10,0 C 94 % 1012,1 hPa 0,0 l/m 0 min 2 min 0 W/m 31,4 km/h (5 Bft)
19.12.2014 02:54 11,6 C 10,0 C 94 % 1012,1 hPa 0,0 l/m 0 min 2 min 0 W/m 37,7 km/h (5 Bft)
19.12.2014 02:56 11,6 C 10,0 C 94 % 1012,1 hPa 0,0 l/m 0 min 2 min 0 W/m 37,7 km/h (5 Bft)
19.12.2014 02:58 11,6 C 10,0 C 94 % 1012,1 hPa 0,0 l/m 0 min 2 min 0 W/m 37,7 km/h (5 Bft)
19.12.2014 03:00 11,6 C 10,0 C 94 % 1012,1 hPa 0,0 l/m 0 min 2 min 0 W/m 37,7 km/h (5 Bft)
19.12.2014 03:02 11,6 C 10,0 C 94 % 1012,1 hPa 0,0 l/m 0 min 2 min 0 W/m 27,2 km/h (4 Bft)
19.12.2014 03:04 11,5 C 10,0 C 94 % 1012,2 hPa 0,0 l/m 0 min 2 min 0 W/m 31,4 km/h (5 Bft)
19.12.2014 03:06 11,5 C 9,4 C 94 % 1012,1 hPa 0,0 l/m 0 min 2 min 0 W/m 43,9 km/h (6 Bft)
19.12.2014 03:08 11,5 C 9,4 C 94 % 1012,0 hPa 0,0 l/m 0 min 2 min 0 W/m 39,7 km/h (6 Bft)
19.12.2014 03:10 11,4 C 9,4 C 94 % 1012,1 hPa 0,0 l/m 0 min 2 min 0 W/m 37,7 km/h (5 Bft)
19.12.2014 03:12 11,4 C 9,4 C 95 % 1012,0 hPa 0,0 l/m 0 min 2 min 0 W/m 39,7 km/h (6 Bft)
19.12.2014 03:14 11,4 C 9,4 C 94 % 1012,0 hPa 0,0 l/m 0 min 2 min 0 W/m 31,4 km/h (5 Bft)
19.12.2014 03:16 11,4 C 9,4 C 95 % 1011,9 hPa 0,0 l/m 0 min 2 min 0 W/m 35,6 km/h (5 Bft)
19.12.2014 03:18 11,4 C 9,4 C 95 % 1011,9 hPa 0,0 l/m 0 min 2 min 0 W/m 37,7 km/h (5 Bft)
19.12.2014 03:20 11,3 C 9,4 C 95 % 1011,9 hPa 0,0 l/m 0 min 2 min 0 W/m 56,5 km/h (7 Bft)
19.12.2014 03:22 11,3 C 9,4 C 95 % 1011,8 hPa 0,0 l/m 0 min 2 min 0 W/m 29,3 km/h (5 Bft)
19.12.2014 03:24 11,3 C 9,4 C 95 % 1011,6 hPa 0,0 l/m 0 min 2 min 0 W/m 27,2 km/h (4 Bft)
19.12.2014 03:26 11,3 C 9,4 C 95 % 1011,5 hPa 0,0 l/m 0 min 2 min 0 W/m 23,0 km/h (4 Bft)
19.12.2014 03:28 11,3 C 9,4 C 95 % 1011,6 hPa 0,0 l/m 0 min 2 min 0 W/m 41,8 km/h (6 Bft)
19.12.2014 03:30 11,3 C 9,4 C 95 % 1011,5 hPa 0,0 l/m 0 min 2 min 0 W/m 41,8 km/h (6 Bft)
19.12.2014 03:32 11,2 C 9,4 C 95 % 1011,6 hPa 0,0 l/m 0 min 2 min 0 W/m 48,1 km/h (6 Bft)
19.12.2014 03:34 11,2 C 9,4 C 95 % 1011,7 hPa 0,0 l/m 0 min 2 min 0 W/m 39,7 km/h (6 Bft)
19.12.2014 03:36 11,2 C 9,4 C 95 % 1011,7 hPa 0,0 l/m 0 min 2 min 0 W/m 39,7 km/h (6 Bft)
19.12.2014 03:38 11,2 C 9,4 C 96 % 1011,6 hPa 0,0 l/m 0 min 2 min 0 W/m 31,4 km/h (5 Bft)
19.12.2014 03:40 11,2 C 9,4 C 96 % 1011,7 hPa 0,0 l/m 0 min 2 min 0 W/m 31,4 km/h (5 Bft)
19.12.2014 03:42 11,2 C 9,4 C 95 % 1011,6 hPa 0,0 l/m 0 min 2 min 0 W/m 43,9 km/h (6 Bft)
19.12.2014 03:44 11,2 C 9,4 C 96 % 1011,6 hPa 0,0 l/m 0 min 2 min 0 W/m 43,9 km/h (6 Bft)
19.12.2014 03:46 11,2 C 9,4 C 96 % 1011,9 hPa 0,0 l/m 0 min 2 min 0 W/m 39,7 km/h (6 Bft)
19.12.2014 03:48 11,2 C 9,4 C 95 % 1011,6 hPa 0,0 l/m 0 min 2 min 0 W/m 39,7 km/h (6 Bft)
19.12.2014 03:50 11,2 C 9,4 C 96 % 1011,5 hPa 0,0 l/m 0 min 2 min 0 W/m 37,7 km/h (5 Bft)
19.12.2014 03:52 11,2 C 9,4 C 96 % 1011,6 hPa 0,0 l/m 0 min 2 min 0 W/m 33,5 km/h (5 Bft)
19.12.2014 03:54 11,2 C 10,0 C 96 % 1011,5 hPa 0,0 l/m 0 min 2 min 0 W/m 35,6 km/h (5 Bft)
19.12.2014 03:56 11,3 C 10,0 C 96 % 1011,6 hPa 0,0 l/m 0 min 2 min 0 W/m 35,6 km/h (5 Bft)
19.12.2014 03:58 11,3 C 10,0 C 96 % 1011,6 hPa 0,0 l/m 0 min 2 min 0 W/m 37,7 km/h (5 Bft)
19.12.2014 04:00 11,3 C 10,0 C 96 % 1011,5 hPa 0,0 l/m 0 min 2 min 0 W/m 48,1 km/h (6 Bft)
19.12.2014 04:02 11,3 C 10,0 C 96 % 1011,5 hPa 0,0 l/m 0 min 2 min 0 W/m 23,0 km/h (4 Bft)
19.12.2014 04:04 11,3 C 10,0 C 96 % 1011,5 hPa 0,0 l/m 0 min 2 min 0 W/m 52,3 km/h (7 Bft)
19.12.2014 04:06 11,3 C 10,0 C 96 % 1011,5 hPa 0,0 l/m 0 min 2 min 0 W/m 39,7 km/h (6 Bft)
19.12.2014 04:08 11,3 C 10,0 C 95 % 1011,6 hPa 0,0 l/m 0 min 2 min 0 W/m 43,9 km/h (6 Bft)
19.12.2014 04:10 11,3 C 10,0 C 95 % 1011,5 hPa 0,0 l/m 0 min 2 min 0 W/m 39,7 km/h (6 Bft)
19.12.2014 04:12 11,3 C 10,0 C 95 % 1011,5 hPa 0,0 l/m 0 min 2 min 0 W/m 39,7 km/h (6 Bft)
19.12.2014 04:14 11,3 C 10,0 C 95 % 1011,4 hPa 0,0 l/m 0 min 2 min 0 W/m 43,9 km/h (6 Bft)
19.12.2014 04:16 11,3 C 10,0 C 95 % 1011,4 hPa 0,0 l/m 0 min 2 min 0 W/m 46,0 km/h (6 Bft)
19.12.2014 04:18 11,3 C 10,0 C 95 % 1011,5 hPa 0,0 l/m 0 min 2 min 0 W/m 37,7 km/h (5 Bft)
19.12.2014 04:20 11,3 C 10,0 C 95 % 1011,4 hPa 0,0 l/m 0 min 2 min 0 W/m 46,0 km/h (6 Bft)
19.12.2014 04:22 11,3 C 10,0 C 95 % 1011,4 hPa 0,0 l/m 0 min 2 min 0 W/m 37,7 km/h (5 Bft)
19.12.2014 04:24 11,3 C 10,0 C 95 % 1011,3 hPa 0,0 l/m 0 min 2 min 0 W/m 35,6 km/h (5 Bft)
19.12.2014 04:26 11,3 C 10,0 C 95 % 1011,2 hPa 0,0 l/m 0 min 2 min 0 W/m 41,8 km/h (6 Bft)
19.12.2014 04:28 11,3 C 10,0 C 95 % 1011,2 hPa 0,0 l/m 0 min 2 min 0 W/m 33,5 km/h (5 Bft)
19.12.2014 04:30 11,3 C 10,0 C 95 % 1011,2 hPa 0,0 l/m 0 min 2 min 0 W/m 37,7 km/h (5 Bft)
19.12.2014 04:32 11,3 C 10,0 C 95 % 1011,2 hPa 0,0 l/m 0 min 2 min 0 W/m 33,5 km/h (5 Bft)
19.12.2014 04:34 11,3 C 10,0 C 95 % 1011,2 hPa 0,0 l/m 0 min 2 min 0 W/m 39,7 km/h (6 Bft)
19.12.2014 04:36 11,3 C 10,0 C 95 % 1011,2 hPa 0,0 l/m 0 min 2 min 0 W/m 37,7 km/h (5 Bft)
19.12.2014 04:38 11,2 C 10,0 C 95 % 1011,2 hPa 0,0 l/m 0 min 2 min 0 W/m 35,6 km/h (5 Bft)
19.12.2014 04:40 11,3 C 10,0 C 95 % 1011,1 hPa 0,0 l/m 0 min 2 min 0 W/m 39,7 km/h (6 Bft)
19.12.2014 04:42 11,3 C 10,0 C 95 % 1011,1 hPa 0,0 l/m 0 min 2 min 0 W/m 35,6 km/h (5 Bft)
19.12.2014 04:44 11,2 C 10,0 C 95 % 1011,1 hPa 0,0 l/m 0 min 2 min 0 W/m 41,8 km/h (6 Bft)
19.12.2014 04:46 11,2 C 10,0 C 95 % 1011,0 hPa 0,0 l/m 0 min 2 min 0 W/m 33,5 km/h (5 Bft)
19.12.2014 04:48 11,2 C 10,0 C 95 % 1011,0 hPa 0,0 l/m 0 min 2 min 0 W/m 48,1 km/h (6 Bft)
19.12.2014 04:50 11,2 C 10,0 C 95 % 1011,0 hPa 0,0 l/m 0 min 2 min 0 W/m 37,7 km/h (5 Bft)
19.12.2014 04:52 11,2 C 10,0 C 95 % 1010,9 hPa 0,0 l/m 0 min 2 min 0 W/m 48,1 km/h (6 Bft)
19.12.2014 04:54 11,2 C 10,0 C 95 % 1010,9 hPa 0,0 l/m 0 min 2 min 0 W/m 33,5 km/h (5 Bft)
19.12.2014 04:56 11,2 C 10,0 C 95 % 1011,0 hPa 0,0 l/m 0 min 2 min 0 W/m 62,8 km/h (8 Bft)
19.12.2014 04:58 11,2 C 10,0 C 95 % 1010,8 hPa 0,0 l/m 0 min 2 min 0 W/m 33,5 km/h (5 Bft)
19.12.2014 05:00 11,2 C 10,0 C 95 % 1010,9 hPa 0,0 l/m 0 min 2 min 0 W/m 43,9 km/h (6 Bft)
19.12.2014 05:02 11,2 C 10,0 C 95 % 1010,7 hPa 0,0 l/m 0 min 2 min 0 W/m 37,7 km/h (5 Bft)
19.12.2014 05:04 11,2 C 10,0 C 95 % 1010,9 hPa 0,0 l/m 0 min 2 min 0 W/m 35,6 km/h (5 Bft)
19.12.2014 05:06 11,2 C 10,0 C 95 % 1010,8 hPa 0,0 l/m 0 min 2 min 0 W/m 56,5 km/h (7 Bft)
19.12.2014 05:08 11,2 C 10,0 C 95 % 1010,7 hPa 0,0 l/m 0 min 2 min 0 W/m 41,8 km/h (6 Bft)
19.12.2014 05:10 11,2 C 10,0 C 95 % 1010,8 hPa 0,0 l/m 0 min 2 min 0 W/m 54,4 km/h (7 Bft)
19.12.2014 05:12 11,2 C 10,0 C 95 % 1010,8 hPa 0,0 l/m 0 min 2 min 0 W/m 39,7 km/h (6 Bft)
19.12.2014 05:14 11,2 C 10,0 C 95 % 1010,7 hPa 0,0 l/m 0 min 2 min 0 W/m 37,7 km/h (5 Bft)
19.12.2014 05:16 11,2 C 10,0 C 95 % 1010,7 hPa 0,0 l/m 0 min 2 min 0 W/m 43,9 km/h (6 Bft)
19.12.2014 05:18 11,2 C 10,0 C 95 % 1010,7 hPa 0,0 l/m 0 min 2 min 0 W/m 27,2 km/h (4 Bft)
19.12.2014 05:20 11,2 C 10,0 C 95 % 1010,7 hPa 0,0 l/m 0 min 2 min 0 W/m 46,0 km/h (6 Bft)
19.12.2014 05:22 11,2 C 10,0 C 95 % 1010,7 hPa 0,0 l/m 0 min 2 min 0 W/m 37,7 km/h (5 Bft)
19.12.2014 05:24 11,2 C 10,0 C 95 % 1010,6 hPa 0,0 l/m 0 min 2 min 0 W/m 37,7 km/h (5 Bft)
19.12.2014 05:26 11,2 C 10,0 C 95 % 1010,9 hPa 0,0 l/m 0 min 2 min 0 W/m 56,5 km/h (7 Bft)
19.12.2014 05:28 11,2 C 10,0 C 95 % 1010,7 hPa 0,0 l/m 0 min 2 min 0 W/m 41,8 km/h (6 Bft)
19.12.2014 05:30 11,2 C 10,0 C 95 % 1010,7 hPa 0,0 l/m 0 min 2 min 0 W/m 37,7 km/h (5 Bft)
19.12.2014 05:32 11,2 C 10,0 C 95 % 1010,6 hPa 0,0 l/m 0 min 2 min 0 W/m 39,7 km/h (6 Bft)
19.12.2014 05:34 11,2 C 10,0 C 95 % 1010,5 hPa 0,0 l/m 0 min 2 min 0 W/m 39,7 km/h (6 Bft)
19.12.2014 05:36 11,2 C 10,0 C 95 % 1010,5 hPa 0,0 l/m 0 min 2 min 0 W/m 39,7 km/h (6 Bft)
19.12.2014 05:38 11,2 C 10,0 C 95 % 1010,5 hPa 0,0 l/m 0 min 2 min 0 W/m 43,9 km/h (6 Bft)
19.12.2014 05:40 11,3 C 10,0 C 94 % 1010,6 hPa 0,0 l/m 0 min 2 min 0 W/m 37,7 km/h (5 Bft)
19.12.2014 05:42 11,3 C 10,0 C 94 % 1010,5 hPa 0,0 l/m 0 min 2 min 0 W/m 41,8 km/h (6 Bft)
19.12.2014 05:44 11,3 C 10,0 C 94 % 1010,5 hPa 0,0 l/m 0 min 2 min 0 W/m 33,5 km/h (5 Bft)
19.12.2014 05:46 11,3 C 10,0 C 94 % 1010,5 hPa 0,0 l/m 0 min 2 min 0 W/m 33,5 km/h (5 Bft)
19.12.2014 05:48 11,3 C 10,0 C 94 % 1010,5 hPa 0,0 l/m 0 min 2 min 0 W/m 39,7 km/h (6 Bft)
19.12.2014 05:50 11,3 C 10,0 C 94 % 1010,5 hPa 0,0 l/m 0 min 2 min 0 W/m 48,1 km/h (6 Bft)
19.12.2014 05:52 11,3 C 10,0 C 94 % 1010,4 hPa 0,0 l/m 0 min 2 min 0 W/m 48,1 km/h (6 Bft)
19.12.2014 05:54 11,3 C 10,0 C 94 % 1010,3 hPa 0,0 l/m 0 min 2 min 0 W/m 33,5 km/h (5 Bft)
19.12.2014 05:56 11,3 C 10,0 C 94 % 1010,3 hPa 0,0 l/m 0 min 2 min 0 W/m 56,5 km/h (7 Bft)
19.12.2014 05:58 11,3 C 10,0 C 94 % 1010,4 hPa 0,0 l/m 0 min 2 min 0 W/m 48,1 km/h (6 Bft)
19.12.2014 06:00 11,3 C 10,0 C 94 % 1010,5 hPa 0,0 l/m 0 min 2 min 0 W/m 48,1 km/h (6 Bft)
19.12.2014 06:03 11,4 C 10,0 C 94 % 1010,3 hPa 0,0 l/m 0 min 2 min 0 W/m 54,4 km/h (7 Bft)
19.12.2014 06:06 11,3 C 10,0 C 94 % 1010,3 hPa 0,0 l/m 0 min 2 min 0 W/m 54,4 km/h (7 Bft)
19.12.2014 06:08 11,4 C 10,0 C 94 % 1010,2 hPa 0,0 l/m 0 min 2 min 0 W/m 48,1 km/h (6 Bft)
19.12.2014 06:10 11,4 C 10,0 C 94 % 1010,1 hPa 0,0 l/m 0 min 2 min 0 W/m 43,9 km/h (6 Bft)
19.12.2014 06:12 11,4 C 10,0 C 94 % 1010,1 hPa 0,0 l/m 0 min 2 min 0 W/m 39,7 km/h (6 Bft)
19.12.2014 06:14 11,4 C 10,0 C 94 % 1010,2 hPa 0,0 l/m 0 min 2 min 0 W/m 46,0 km/h (6 Bft)
19.12.2014 06:16 11,4 C 10,0 C 94 % 1010,3 hPa 0,0 l/m 0 min 2 min 0 W/m 50,2 km/h (7 Bft)
19.12.2014 06:18 11,4 C 10,0 C 93 % 1010,2 hPa 0,0 l/m 0 min 2 min 0 W/m 52,3 km/h (7 Bft)
19.12.2014 06:20 11,4 C 10,0 C 93 % 1010,2 hPa 0,0 l/m 0 min 2 min 0 W/m 37,7 km/h (5 Bft)
19.12.2014 06:22 11,4 C 10,0 C 93 % 1010,1 hPa 0,0 l/m 0 min 2 min 0 W/m 43,9 km/h (6 Bft)
19.12.2014 06:24 11,4 C 10,0 C 93 % 1010,1 hPa 0,0 l/m 0 min 2 min 0 W/m 35,6 km/h (5 Bft)
19.12.2014 06:26 11,4 C 10,0 C 93 % 1010,3 hPa 0,0 l/m 0 min 2 min 0 W/m 56,5 km/h (7 Bft)
19.12.2014 06:28 11,4 C 10,0 C 93 % 1010,2 hPa 0,0 l/m 0 min 2 min 0 W/m 58,6 km/h (7 Bft)
19.12.2014 06:30 11,4 C 10,0 C 93 % 1010,0 hPa 0,0 l/m 0 min 2 min 0 W/m 41,8 km/h (6 Bft)
19.12.2014 06:32 11,4 C 10,0 C 93 % 1010,2 hPa 0,0 l/m 0 min 2 min 0 W/m 52,3 km/h (7 Bft)
19.12.2014 06:34 11,4 C 10,0 C 93 % 1010,2 hPa 0,0 l/m 0 min 2 min 0 W/m 33,5 km/h (5 Bft)
19.12.2014 06:36 11,4 C 10,0 C 93 % 1010,2 hPa 0,0 l/m 0 min 2 min 0 W/m 48,1 km/h (6 Bft)
19.12.2014 06:38 11,4 C 10,0 C 93 % 1010,3 hPa 0,0 l/m 0 min 2 min 0 W/m 62,8 km/h (8 Bft)
19.12.2014 06:40 11,4 C 10,0 C 93 % 1010,1 hPa 0,0 l/m 0 min 2 min 0 W/m 43,9 km/h (6 Bft)
19.12.2014 06:42 11,4 C 10,0 C 93 % 1010,0 hPa 0,0 l/m 0 min 2 min 0 W/m 39,7 km/h (6 Bft)
19.12.2014 06:44 11,4 C 10,0 C 93 % 1010,0 hPa 0,0 l/m 0 min 2 min 0 W/m 56,5 km/h (7 Bft)
19.12.2014 06:46 11,4 C 10,0 C 93 % 1010,0 hPa 0,0 l/m 0 min 2 min 0 W/m 50,2 km/h (7 Bft)
19.12.2014 06:48 11,3 C 9,4 C 93 % 1010,0 hPa 0,0 l/m 0 min 2 min 0 W/m 50,2 km/h (7 Bft)
19.12.2014 06:50 11,3 C 9,4 C 94 % 1009,9 hPa 0,0 l/m 0 min 2 min 0 W/m 48,1 km/h (6 Bft)
19.12.2014 06:52 11,3 C 9,4 C 94 % 1010,1 hPa 0,0 l/m 0 min 2 min 0 W/m 46,0 km/h (6 Bft)
19.12.2014 06:54 11,3 C 9,4 C 94 % 1010,1 hPa 0,0 l/m 0 min 2 min 0 W/m 43,9 km/h (6 Bft)
19.12.2014 06:56 11,3 C 9,4 C 94 % 1009,9 hPa 0,0 l/m 0 min 2 min 0 W/m 41,8 km/h (6 Bft)
19.12.2014 06:58 11,3 C 9,4 C 94 % 1010,0 hPa 0,0 l/m 0 min 2 min 0 W/m 50,2 km/h (7 Bft)
19.12.2014 07:00 11,2 C 9,4 C 94 % 1010,0 hPa 0,0 l/m 0 min 2 min 0 W/m 41,8 km/h (6 Bft)
19.12.2014 07:02 11,2 C 9,4 C 94 % 1009,8 hPa 0,0 l/m 0 min 2 min 0 W/m 50,2 km/h (7 Bft)
19.12.2014 07:04 11,2 C 9,4 C 94 % 1009,9 hPa 0,0 l/m 0 min 2 min 0 W/m 50,2 km/h (7 Bft)
19.12.2014 07:06 11,2 C 9,4 C 94 % 1009,9 hPa 0,0 l/m 0 min 2 min 0 W/m 50,2 km/h (7 Bft)
19.12.2014 07:08 11,2 C 9,4 C 94 % 1009,9 hPa 0,0 l/m 0 min 2 min 0 W/m 50,2 km/h (7 Bft)
19.12.2014 07:10 11,2 C 9,4 C 94 % 1009,8 hPa 0,0 l/m 0 min 2 min 0 W/m 46,0 km/h (6 Bft)
19.12.2014 07:12 11,2 C 9,4 C 94 % 1009,7 hPa 0,0 l/m 0 min 2 min 0 W/m 48,1 km/h (6 Bft)
19.12.2014 07:14 11,2 C 9,4 C 94 % 1009,6 hPa 0,0 l/m 0 min 2 min 0 W/m 48,1 km/h (6 Bft)
19.12.2014 07:16 11,2 C 9,4 C 94 % 1009,6 hPa 0,0 l/m 0 min 2 min 0 W/m 43,9 km/h (6 Bft)
19.12.2014 07:18 11,2 C 9,4 C 94 % 1009,6 hPa 0,0 l/m 0 min 2 min 0 W/m 46,0 km/h (6 Bft)
19.12.2014 07:20 11,1 C 9,4 C 94 % 1009,5 hPa 0,0 l/m 0 min 2 min 0 W/m 37,7 km/h (5 Bft)
19.12.2014 07:22 11,1 C 9,4 C 94 % 1009,5 hPa 0,0 l/m 0 min 2 min 0 W/m 46,0 km/h (6 Bft)
19.12.2014 07:24 11,1 C 9,4 C 94 % 1009,5 hPa 0,0 l/m 0 min 2 min 0 W/m 46,0 km/h (6 Bft)
19.12.2014 07:26 11,1 C 9,4 C 94 % 1009,7 hPa 0,0 l/m 0 min 2 min 0 W/m 41,8 km/h (6 Bft)
19.12.2014 07:28 11,1 C 9,4 C 94 % 1009,5 hPa 0,0 l/m 0 min 2 min 0 W/m 48,1 km/h (6 Bft)
19.12.2014 07:30 11,1 C 9,4 C 94 % 1009,5 hPa 0,0 l/m 0 min 2 min 0 W/m 52,3 km/h (7 Bft)
19.12.2014 07:32 11,1 C 9,4 C 94 % 1009,5 hPa 0,0 l/m 0 min 2 min 0 W/m 43,9 km/h (6 Bft)
19.12.2014 07:34 11,1 C 9,4 C 94 % 1009,4 hPa 0,0 l/m 0 min 2 min 0 W/m 43,9 km/h (6 Bft)
19.12.2014 07:36 11,1 C 9,4 C 94 % 1009,4 hPa 0,0 l/m 0 min 2 min 0 W/m 39,7 km/h (6 Bft)
19.12.2014 07:38 11,1 C 9,4 C 94 % 1009,5 hPa 0,0 l/m 0 min 2 min 0 W/m 52,3 km/h (7 Bft)
19.12.2014 07:40 11,1 C 9,4 C 94 % 1009,6 hPa 0,0 l/m 0 min 2 min 0 W/m 41,8 km/h (6 Bft)
19.12.2014 07:42 11,2 C 9,4 C 94 % 1009,5 hPa 0,0 l/m 0 min 2 min 0 W/m 46,0 km/h (6 Bft)
19.12.2014 07:44 11,1 C 9,4 C 94 % 1009,4 hPa 0,0 l/m 0 min 2 min 0 W/m 46,0 km/h (6 Bft)
19.12.2014 07:46 11,1 C 9,4 C 94 % 1009,4 hPa 0,0 l/m 0 min 2 min 0 W/m 54,4 km/h (7 Bft)
19.12.2014 07:48 11,1 C 9,4 C 94 % 1009,6 hPa 0,0 l/m 0 min 2 min 0 W/m 46,0 km/h (6 Bft)
19.12.2014 07:50 11,1 C 9,4 C 95 % 1009,5 hPa 0,0 l/m 0 min 2 min 0 W/m 37,7 km/h (5 Bft)
19.12.2014 07:52 11,1 C 9,4 C 95 % 1009,5 hPa 0,0 l/m 0 min 2 min 0 W/m 46,0 km/h (6 Bft)
19.12.2014 07:54 11,1 C 9,4 C 95 % 1009,5 hPa 0,0 l/m 0 min 2 min 0 W/m 58,6 km/h (7 Bft)
19.12.2014 07:56 11,0 C 9,4 C 95 % 1009,4 hPa 0,2 l/m 0 min 2 min 0 W/m 50,2 km/h (7 Bft)
19.12.2014 07:58 11,0 C 9,4 C 95 % 1009,4 hPa 0,0 l/m 0 min 2 min 0 W/m 48,1 km/h (6 Bft)
19.12.2014 08:00 10,9 C 9,4 C 95 % 1009,4 hPa 0,0 l/m 0 min 2 min 0 W/m 39,7 km/h (6 Bft)
19.12.2014 08:02 10,9 C 9,4 C 95 % 1009,6 hPa 0,0 l/m 0 min 2 min 0 W/m 62,8 km/h (8 Bft)
19.12.2014 08:04 10,9 C 9,4 C 95 % 1009,4 hPa 0,0 l/m 0 min 2 min 0 W/m 35,6 km/h (5 Bft)
19.12.2014 08:06 10,9 C 9,4 C 95 % 1009,4 hPa 0,0 l/m 0 min 2 min 0 W/m 56,5 km/h (7 Bft)
19.12.2014 08:08 10,9 C 9,4 C 95 % 1009,4 hPa 0,0 l/m 0 min 2 min 0 W/m 48,1 km/h (6 Bft)
19.12.2014 08:10 10,9 C 9,4 C 95 % 1009,3 hPa 0,0 l/m 0 min 2 min 0 W/m 50,2 km/h (7 Bft)
19.12.2014 08:12 10,9 C 9,4 C 95 % 1009,3 hPa 0,0 l/m 0 min 2 min 0 W/m 39,7 km/h (6 Bft)
19.12.2014 08:14 10,9 C 9,4 C 95 % 1009,4 hPa 0,0 l/m 0 min 2 min 0 W/m 48,1 km/h (6 Bft)
19.12.2014 08:16 10,8 C 9,4 C 95 % 1009,5 hPa 0,0 l/m 0 min 2 min 0 W/m 50,2 km/h (7 Bft)
19.12.2014 08:18 10,8 C 9,4 C 95 % 1009,4 hPa 0,0 l/m 0 min 2 min 0 W/m 54,4 km/h (7 Bft)
19.12.2014 08:20 10,8 C 9,4 C 95 % 1009,5 hPa 0,0 l/m 0 min 2 min 0 W/m 37,7 km/h (5 Bft)
19.12.2014 08:22 10,8 C 9,4 C 96 % 1009,4 hPa 0,0 l/m 0 min 2 min 0 W/m 56,5 km/h (7 Bft)
19.12.2014 08:24 10,8 C 9,4 C 95 % 1009,5 hPa 0,0 l/m 0 min 2 min 0 W/m 46,0 km/h (6 Bft)
19.12.2014 08:26 10,8 C 9,4 C 95 % 1009,5 hPa 0,0 l/m 0 min 2 min 0 W/m 31,4 km/h (5 Bft)
19.12.2014 08:28 10,8 C 9,4 C 95 % 1009,4 hPa 0,0 l/m 0 min 2 min 0 W/m 43,9 km/h (6 Bft)
19.12.2014 08:30 10,8 C 9,4 C 96 % 1009,3 hPa 0,0 l/m 0 min 2 min 0 W/m 48,1 km/h (6 Bft)
19.12.2014 08:32 10,8 C 9,4 C 96 % 1009,4 hPa 0,2 l/m 0 min 2 min 0 W/m 48,1 km/h (6 Bft)
19.12.2014 08:34 10,8 C 9,4 C 96 % 1009,4 hPa 0,0 l/m 0 min 2 min 0 W/m 43,9 km/h (6 Bft)
19.12.2014 08:36 10,8 C 9,4 C 96 % 1009,5 hPa 0,0 l/m 0 min 2 min 0 W/m 48,1 km/h (6 Bft)
19.12.2014 08:38 10,8 C 9,4 C 96 % 1009,5 hPa 0,0 l/m 0 min 2 min 0 W/m 60,7 km/h (7 Bft)
19.12.2014 08:40 10,8 C 9,4 C 96 % 1009,4 hPa 0,0 l/m 0 min 2 min 0 W/m 46,0 km/h (6 Bft)
19.12.2014 08:42 10,8 C 9,4 C 96 % 1009,5 hPa 0,0 l/m 0 min 2 min 0 W/m 50,2 km/h (7 Bft)
19.12.2014 08:44 10,8 C 9,4 C 96 % 1009,4 hPa 0,0 l/m 0 min 2 min 0 W/m 50,2 km/h (7 Bft)
19.12.2014 08:46 10,8 C 9,4 C 96 % 1009,4 hPa 0,0 l/m 0 min 2 min 0 W/m 37,7 km/h (5 Bft)
19.12.2014 08:48 10,8 C 9,4 C 96 % 1009,4 hPa 0,0 l/m 0 min 2 min 4 W/m 58,6 km/h (7 Bft)
19.12.2014 08:50 10,8 C 9,4 C 96 % 1009,4 hPa 0,0 l/m 0 min 2 min 5 W/m 37,7 km/h (5 Bft)
19.12.2014 08:52 10,8 C 9,4 C 96 % 1009,6 hPa 0,0 l/m 0 min 2 min 5 W/m 48,1 km/h (6 Bft)
19.12.2014 08:54 10,8 C 9,4 C 96 % 1009,4 hPa 0,0 l/m 0 min 2 min 5 W/m 33,5 km/h (5 Bft)
19.12.2014 08:56 10,8 C 9,4 C 96 % 1009,5 hPa 0,0 l/m 0 min 2 min 5 W/m 46,0 km/h (6 Bft)
19.12.2014 08:58 10,8 C 9,4 C 96 % 1009,4 hPa 0,0 l/m 0 min 2 min 5 W/m 37,7 km/h (5 Bft)
19.12.2014 09:00 10,8 C 9,4 C 96 % 1009,3 hPa 0,0 l/m 0 min 2 min 5 W/m 39,7 km/h (6 Bft)
19.12.2014 09:02 10,8 C 9,4 C 96 % 1009,4 hPa 0,0 l/m 0 min 2 min 5 W/m 43,9 km/h (6 Bft)
19.12.2014 09:04 10,8 C 9,4 C 96 % 1009,4 hPa 0,0 l/m 0 min 2 min 5 W/m 50,2 km/h (7 Bft)
19.12.2014 09:06 10,8 C 8,9 C 96 % 1009,4 hPa 0,0 l/m 0 min 2 min 5 W/m 46,0 km/h (6 Bft)
19.12.2014 09:08 10,8 C 8,9 C 96 % 1009,4 hPa 0,2 l/m 0 min 2 min 5 W/m 39,7 km/h (6 Bft)
19.12.2014 09:10 10,8 C 8,9 C 96 % 1009,3 hPa 0,0 l/m 0 min 2 min 6 W/m 35,6 km/h (5 Bft)
19.12.2014 09:12 10,8 C 8,9 C 96 % 1009,3 hPa 0,2 l/m 0 min 2 min 5 W/m 43,9 km/h (6 Bft)
19.12.2014 09:14 10,8 C 8,9 C 96 % 1009,4 hPa 0,0 l/m 0 min 2 min 5 W/m 41,8 km/h (6 Bft)
19.12.2014 09:16 10,8 C 8,9 C 96 % 1009,3 hPa 0,0 l/m 0 min 2 min 5 W/m 48,1 km/h (6 Bft)
19.12.2014 09:18 10,8 C 8,9 C 96 % 1009,5 hPa 0,2 l/m 0 min 2 min 5 W/m 46,0 km/h (6 Bft)
19.12.2014 09:20 10,7 C 8,9 C 96 % 1009,4 hPa 0,0 l/m 0 min 2 min 5 W/m 43,9 km/h (6 Bft)
19.12.2014 09:22 10,7 C 8,9 C 96 % 1009,4 hPa 0,0 l/m 0 min 2 min 5 W/m 33,5 km/h (5 Bft)
19.12.2014 09:24 10,7 C 8,9 C 96 % 1009,4 hPa 0,2 l/m 0 min 2 min 5 W/m 46,0 km/h (6 Bft)
19.12.2014 09:26 10,7 C 8,9 C 96 % 1009,5 hPa 0,0 l/m 0 min 2 min 5 W/m 37,7 km/h (5 Bft)
19.12.2014 09:28 10,7 C 8,9 C 96 % 1009,5 hPa 0,0 l/m 0 min 2 min 8 W/m 39,7 km/h (6 Bft)
19.12.2014 09:30 10,7 C 8,9 C 96 % 1009,4 hPa 0,2 l/m 0 min 2 min 9 W/m 48,1 km/h (6 Bft)
19.12.2014 09:32 10,7 C 8,9 C 96 % 1009,3 hPa 0,0 l/m 0 min 2 min 10 W/m 27,2 km/h (4 Bft)
19.12.2014 09:34 10,7 C 8,9 C 96 % 1009,3 hPa 0,0 l/m 0 min 2 min 11 W/m 41,8 km/h (6 Bft)
19.12.2014 09:36 10,7 C 8,9 C 96 % 1009,5 hPa 0,2 l/m 0 min 2 min 11 W/m 52,3 km/h (7 Bft)
19.12.2014 09:38 10,7 C 8,9 C 96 % 1009,4 hPa 0,0 l/m 0 min 2 min 12 W/m 35,6 km/h (5 Bft)
19.12.2014 09:40 10,7 C 8,9 C 96 % 1009,4 hPa 0,0 l/m 0 min 2 min 12 W/m 46,0 km/h (6 Bft)
19.12.2014 09:42 10,7 C 8,9 C 96 % 1009,3 hPa 0,0 l/m 0 min 2 min 12 W/m 43,9 km/h (6 Bft)
19.12.2014 09:44 10,7 C 8,9 C 96 % 1009,3 hPa 0,0 l/m 0 min 2 min 15 W/m 46,0 km/h (6 Bft)
19.12.2014 09:46 10,7 C 8,9 C 96 % 1009,4 hPa 0,2 l/m 0 min 2 min 18 W/m 46,0 km/h (6 Bft)
19.12.2014 09:48 10,7 C 8,9 C 96 % 1009,4 hPa 0,0 l/m 0 min 2 min 19 W/m 46,0 km/h (6 Bft)
19.12.2014 09:50 10,7 C 8,9 C 96 % 1009,4 hPa 0,0 l/m 0 min 2 min 20 W/m 46,0 km/h (6 Bft)
19.12.2014 09:52 10,7 C 8,9 C 96 % 1009,4 hPa 0,0 l/m 0 min 2 min 19 W/m 41,8 km/h (6 Bft)
19.12.2014 09:54 10,7 C 8,9 C 96 % 1009,4 hPa 0,0 l/m 0 min 2 min 18 W/m 54,4 km/h (7 Bft)
19.12.2014 09:56 10,7 C 8,9 C 96 % 1009,5 hPa 0,0 l/m 0 min 2 min 18 W/m 58,6 km/h (7 Bft)
19.12.2014 09:58 10,7 C 8,9 C 96 % 1009,4 hPa 0,0 l/m 0 min 2 min 18 W/m 41,8 km/h (6 Bft)
19.12.2014 10:00 10,7 C 8,9 C 96 % 1009,4 hPa 0,0 l/m 0 min 2 min 16 W/m 48,1 km/h (6 Bft)
19.12.2014 10:02 10,7 C 8,9 C 96 % 1009,4 hPa 0,0 l/m 0 min 2 min 14 W/m 33,5 km/h (5 Bft)
19.12.2014 10:04 10,7 C 8,9 C 96 % 1009,4 hPa 0,0 l/m 0 min 2 min 12 W/m 37,7 km/h (5 Bft)
19.12.2014 10:06 10,7 C 8,9 C 96 % 1009,4 hPa 0,0 l/m 0 min 2 min 14 W/m 41,8 km/h (6 Bft)
19.12.2014 10:08 10,7 C 8,9 C 96 % 1009,4 hPa 0,2 l/m 0 min 2 min 16 W/m 48,1 km/h (6 Bft)
19.12.2014 10:10 10,7 C 8,9 C 96 % 1009,5 hPa 0,0 l/m 0 min 2 min 24 W/m 52,3 km/h (7 Bft)
19.12.2014 10:12 10,8 C 8,9 C 96 % 1009,5 hPa 0,0 l/m 0 min 2 min 32 W/m 52,3 km/h (7 Bft)
19.12.2014 10:14 10,8 C 8,9 C 96 % 1009,4 hPa 0,0 l/m 0 min 2 min 26 W/m 52,3 km/h (7 Bft)
19.12.2014 10:16 10,8 C 8,9 C 96 % 1009,5 hPa 0,0 l/m 0 min 2 min 25 W/m 37,7 km/h (5 Bft)
19.12.2014 10:18 10,8 C 8,9 C 96 % 1009,5 hPa 0,0 l/m 0 min 2 min 25 W/m 54,4 km/h (7 Bft)
19.12.2014 10:20 10,8 C 8,9 C 96 % 1009,5 hPa 0,0 l/m 0 min 2 min 23 W/m 48,1 km/h (6 Bft)
19.12.2014 10:22 10,8 C 8,9 C 96 % 1009,5 hPa 0,0 l/m 0 min 2 min 27 W/m 50,2 km/h (7 Bft)
19.12.2014 10:24 10,8 C 9,4 C 96 % 1009,6 hPa 0,0 l/m 0 min 2 min 27 W/m 43,9 km/h (6 Bft)
19.12.2014 10:26 10,8 C 9,4 C 96 % 1009,7 hPa 0,0 l/m 0 min 2 min 30 W/m 43,9 km/h (6 Bft)
19.12.2014 10:28 10,8 C 9,4 C 96 % 1009,7 hPa 0,2 l/m 0 min 2 min 28 W/m 37,7 km/h (5 Bft)
19.12.2014 10:30 10,8 C 9,4 C 96 % 1009,6 hPa 0,0 l/m 0 min 2 min 29 W/m 29,3 km/h (5 Bft)
19.12.2014 10:32 10,8 C 9,4 C 96 % 1009,7 hPa 0,0 l/m 0 min 2 min 27 W/m 50,2 km/h (7 Bft)
19.12.2014 10:34 10,8 C 9,4 C 96 % 1009,6 hPa 0,0 l/m 0 min 2 min 30 W/m 50,2 km/h (7 Bft)
19.12.2014 10:36 10,8 C 9,4 C 96 % 1009,7 hPa 0,0 l/m 0 min 2 min 35 W/m 52,3 km/h (7 Bft)
19.12.2014 10:38 10,8 C 9,4 C 96 % 1009,7 hPa 0,0 l/m 0 min 2 min 52 W/m 52,3 km/h (7 Bft)
19.12.2014 10:40 10,8 C 9,4 C 96 % 1009,6 hPa 0,0 l/m 0 min 2 min 69 W/m 46,0 km/h (6 Bft)
19.12.2014 10:42 10,8 C 9,4 C 96 % 1009,7 hPa 0,0 l/m 0 min 2 min 51 W/m 46,0 km/h (6 Bft)
19.12.2014 10:44 10,8 C 9,4 C 96 % 1009,7 hPa 0,0 l/m 0 min 2 min 31 W/m 37,7 km/h (5 Bft)
19.12.2014 10:46 10,8 C 9,4 C 96 % 1009,7 hPa 0,0 l/m 0 min 2 min 21 W/m 37,7 km/h (5 Bft)
19.12.2014 10:48 10,8 C 9,4 C 96 % 1009,8 hPa 0,0 l/m 0 min 2 min 18 W/m 52,3 km/h (7 Bft)
19.12.2014 10:50 10,8 C 9,4 C 96 % 1009,7 hPa 0,2 l/m 0 min 2 min 19 W/m 48,1 km/h (6 Bft)
19.12.2014 10:52 10,8 C 9,4 C 96 % 1009,6 hPa 0,0 l/m 0 min 2 min 20 W/m 41,8 km/h (6 Bft)
19.12.2014 10:54 10,8 C 9,4 C 97 % 1009,7 hPa 0,0 l/m 0 min 2 min 27 W/m 39,7 km/h (6 Bft)
19.12.2014 10:56 10,8 C 9,4 C 97 % 1009,8 hPa 0,0 l/m 0 min 2 min 32 W/m 54,4 km/h (7 Bft)
19.12.2014 10:58 10,8 C 9,4 C 97 % 1009,7 hPa 0,0 l/m 0 min 2 min 31 W/m 41,8 km/h (6 Bft)
19.12.2014 11:00 10,8 C 9,4 C 97 % 1009,8 hPa 0,2 l/m 0 min 2 min 28 W/m 43,9 km/h (6 Bft)
19.12.2014 11:02 10,8 C 9,4 C 97 % 1009,7 hPa 0,0 l/m 0 min 2 min 28 W/m 37,7 km/h (5 Bft)
19.12.2014 11:04 10,8 C 9,4 C 97 % 1009,8 hPa 0,0 l/m 0 min 2 min 26 W/m 48,1 km/h (6 Bft)
19.12.2014 11:06 10,8 C 9,4 C 97 % 1009,7 hPa 0,0 l/m 0 min 2 min 29 W/m 39,7 km/h (6 Bft)
19.12.2014 11:08 10,8 C 9,4 C 97 % 1009,8 hPa 0,2 l/m 0 min 2 min 28 W/m 39,7 km/h (6 Bft)
19.12.2014 11:10 10,8 C 9,4 C 97 % 1009,7 hPa 0,0 l/m 0 min 2 min 26 W/m 50,2 km/h (7 Bft)
19.12.2014 11:12 10,8 C 9,4 C 97 % 1009,7 hPa 0,0 l/m 0 min 2 min 34 W/m 46,0 km/h (6 Bft)
19.12.2014 11:14 10,8 C 9,4 C 97 % 1009,7 hPa 0,2 l/m 0 min 2 min 33 W/m 48,1 km/h (6 Bft)
19.12.2014 11:16 10,8 C 9,4 C 97 % 1009,6 hPa 0,0 l/m 0 min 2 min 33 W/m 46,0 km/h (6 Bft)
19.12.2014 11:18 10,8 C 9,4 C 97 % 1009,7 hPa 0,0 l/m 0 min 2 min 30 W/m 43,9 km/h (6 Bft)
19.12.2014 11:20 10,8 C 9,4 C 97 % 1009,7 hPa 0,2 l/m 0 min 2 min 30 W/m 46,0 km/h (6 Bft)
19.12.2014 11:22 10,8 C 9,4 C 97 % 1009,7 hPa 0,0 l/m 0 min 2 min 27 W/m 37,7 km/h (5 Bft)
19.12.2014 11:24 10,8 C 9,4 C 97 % 1009,8 hPa 0,0 l/m 0 min 2 min 26 W/m 39,7 km/h (6 Bft)
19.12.2014 11:26 10,8 C 9,4 C 97 % 1009,7 hPa 0,0 l/m 0 min 2 min 28 W/m 33,5 km/h (5 Bft)
19.12.2014 11:28 10,8 C 9,4 C 97 % 1009,7 hPa 0,0 l/m 0 min 2 min 30 W/m 43,9 km/h (6 Bft)
19.12.2014 11:30 10,8 C 9,4 C 97 % 1009,5 hPa 0,0 l/m 0 min 2 min 34 W/m 46,0 km/h (6 Bft)
19.12.2014 11:32 10,8 C 9,4 C 97 % 1009,6 hPa 0,2 l/m 0 min 2 min 36 W/m 52,3 km/h (7 Bft)
19.12.2014 11:34 10,8 C 9,4 C 97 % 1009,7 hPa 0,0 l/m 0 min 2 min 32 W/m 43,9 km/h (6 Bft)
19.12.2014 11:36 10,8 C 9,4 C 97 % 1009,6 hPa 0,0 l/m 0 min 2 min 30 W/m 29,3 km/h (5 Bft)
19.12.2014 11:38 10,8 C 9,4 C 97 % 1009,6 hPa 0,0 l/m 0 min 2 min 32 W/m 39,7 km/h (6 Bft)
19.12.2014 11:40 10,8 C 9,4 C 97 % 1009,6 hPa 0,0 l/m 0 min 2 min 30 W/m 50,2 km/h (7 Bft)
19.12.2014 11:42 10,8 C 9,4 C 97 % 1009,6 hPa 0,0 l/m 0 min 2 min 32 W/m 31,4 km/h (5 Bft)
19.12.2014 11:44 10,8 C 9,4 C 97 % 1009,5 hPa 0,2 l/m 0 min 2 min 27 W/m 33,5 km/h (5 Bft)
19.12.2014 11:46 10,8 C 9,4 C 97 % 1009,5 hPa 0,0 l/m 0 min 2 min 28 W/m 35,6 km/h (5 Bft)
19.12.2014 11:48 10,8 C 9,4 C 97 % 1009,5 hPa 0,0 l/m 0 min 2 min 31 W/m 41,8 km/h (6 Bft)
19.12.2014 11:50 10,8 C 9,4 C 97 % 1009,5 hPa 0,0 l/m 0 min 2 min 33 W/m 43,9 km/h (6 Bft)
19.12.2014 11:52 10,8 C 9,4 C 97 % 1009,5 hPa 0,0 l/m 0 min 2 min 34 W/m 39,7 km/h (6 Bft)
19.12.2014 11:54 10,8 C 9,4 C 97 % 1009,5 hPa 0,0 l/m 0 min 2 min 35 W/m 33,5 km/h (5 Bft)
19.12.2014 11:56 10,8 C 9,4 C 97 % 1009,5 hPa 0,0 l/m 0 min 2 min 37 W/m 46,0 km/h (6 Bft)
19.12.2014 11:58 10,8 C 9,4 C 97 % 1009,5 hPa 0,0 l/m 0 min 2 min 35 W/m 35,6 km/h (5 Bft)
19.12.2014 12:00 10,8 C 9,4 C 97 % 1009,6 hPa 0,0 l/m 0 min 2 min 37 W/m 46,0 km/h (6 Bft)
19.12.2014 12:02 10,8 C 9,4 C 97 % 1009,5 hPa 0,0 l/m 0 min 2 min 44 W/m 31,4 km/h (5 Bft)
19.12.2014 12:05 10,8 C 9,4 C 97 % 1009,5 hPa 0,2 l/m 0 min 2 min 43 W/m 35,6 km/h (5 Bft)
19.12.2014 12:06 10,8 C 9,4 C 97 % 1009,5 hPa 0,0 l/m 0 min 1 min 39 W/m 43,9 km/h (6 Bft)
19.12.2014 12:08 10,8 C 9,4 C 97 % 1009,5 hPa 0,0 l/m 0 min 2 min 38 W/m 43,9 km/h (6 Bft)
19.12.2014 12:10 10,8 C 9,4 C 97 % 1009,5 hPa 0,0 l/m 0 min 2 min 33 W/m 39,7 km/h (6 Bft)
19.12.2014 12:12 10,8 C 9,4 C 97 % 1009,5 hPa 0,0 l/m 0 min 2 min 27 W/m 48,1 km/h (6 Bft)
19.12.2014 12:14 10,8 C 9,4 C 97 % 1009,5 hPa 0,0 l/m 0 min 2 min 25 W/m 37,7 km/h (5 Bft)
19.12.2014 12:16 10,8 C 9,4 C 97 % 1009,4 hPa 0,0 l/m 0 min 2 min 23 W/m 35,6 km/h (5 Bft)
19.12.2014 12:18 10,8 C 9,4 C 97 % 1009,5 hPa 0,2 l/m 0 min 2 min 24 W/m 43,9 km/h (6 Bft)
19.12.2014 12:20 10,8 C 9,4 C 97 % 1009,4 hPa 0,0 l/m 0 min 2 min 24 W/m 50,2 km/h (7 Bft)
19.12.2014 12:22 10,8 C 9,4 C 97 % 1009,4 hPa 0,0 l/m 0 min 2 min 27 W/m 39,7 km/h (6 Bft)
19.12.2014 12:24 10,8 C 9,4 C 97 % 1009,5 hPa 0,0 l/m 0 min 2 min 27 W/m 43,9 km/h (6 Bft)
19.12.2014 12:26 10,8 C 9,4 C 97 % 1009,5 hPa 0,2 l/m 0 min 2 min 26 W/m 37,7 km/h (5 Bft)
19.12.2014 12:28 10,9 C 9,4 C 97 % 1009,5 hPa 0,0 l/m 0 min 2 min 31 W/m 37,7 km/h (5 Bft)
19.12.2014 12:30 10,9 C 9,4 C 97 % 1009,5 hPa 0,0 l/m 0 min 2 min 34 W/m 37,7 km/h (5 Bft)
19.12.2014 12:32 10,9 C 9,4 C 97 % 1009,5 hPa 0,2 l/m 0 min 2 min 28 W/m 37,7 km/h (5 Bft)
19.12.2014 12:34 10,9 C 9,4 C 97 % 1009,5 hPa 0,0 l/m 0 min 2 min 28 W/m 46,0 km/h (6 Bft)
19.12.2014 12:36 10,9 C 9,4 C 97 % 1009,5 hPa 0,0 l/m 0 min 2 min 37 W/m 48,1 km/h (6 Bft)
19.12.2014 12:38 10,9 C 9,4 C 97 % 1009,5 hPa 0,0 l/m 0 min 2 min 40 W/m 46,0 km/h (6 Bft)
19.12.2014 12:40 10,9 C 9,4 C 97 % 1009,6 hPa 0,0 l/m 0 min 2 min 32 W/m 52,3 km/h (7 Bft)
19.12.2014 12:42 10,9 C 9,4 C 97 % 1009,7 hPa 0,0 l/m 0 min 2 min 23 W/m 39,7 km/h (6 Bft)
19.12.2014 12:44 10,9 C 9,4 C 97 % 1009,7 hPa 0,2 l/m 0 min 2 min 29 W/m 48,1 km/h (6 Bft)
19.12.2014 12:46 10,9 C 9,4 C 97 % 1009,5 hPa 0,0 l/m 0 min 2 min 32 W/m 41,8 km/h (6 Bft)
19.12.2014 12:48 10,9 C 9,4 C 97 % 1009,5 hPa 0,0 l/m 0 min 2 min 27 W/m 52,3 km/h (7 Bft)
19.12.2014 12:50 10,9 C 9,4 C 97 % 1009,7 hPa 0,0 l/m 0 min 2 min 29 W/m 37,7 km/h (5 Bft)
19.12.2014 12:52 10,9 C 9,4 C 97 % 1009,5 hPa 0,0 l/m 0 min 2 min 31 W/m 37,7 km/h (5 Bft)
19.12.2014 12:54 10,9 C 9,4 C 97 % 1009,6 hPa 0,2 l/m 0 min 2 min 29 W/m 39,7 km/h (6 Bft)
19.12.2014 12:56 11,0 C 9,4 C 97 % 1009,7 hPa 0,0 l/m 0 min 2 min 26 W/m 31,4 km/h (5 Bft)
19.12.2014 12:58 11,0 C 9,4 C 97 % 1009,6 hPa 0,0 l/m 0 min 2 min 34 W/m 43,9 km/h (6 Bft)
19.12.2014 13:00 11,0 C 9,4 C 97 % 1009,6 hPa 0,0 l/m 0 min 2 min 38 W/m 46,0 km/h (6 Bft)
19.12.2014 13:02 11,0 C 9,4 C 97 % 1009,7 hPa 0,0 l/m 0 min 2 min 34 W/m 35,6 km/h (5 Bft)
19.12.2014 13:04 11,0 C 9,4 C 97 % 1009,8 hPa 0,0 l/m 0 min 2 min 27 W/m 29,3 km/h (5 Bft)
19.12.2014 13:06 11,0 C 9,4 C 97 % 1009,9 hPa 0,4 l/m 0 min 2 min 21 W/m 29,3 km/h (5 Bft)
19.12.2014 13:08 11,0 C 9,4 C 97 % 1010,0 hPa 0,2 l/m 0 min 2 min 22 W/m 29,3 km/h (5 Bft)
19.12.2014 13:10 11,0 C 9,4 C 97 % 1010,2 hPa 0,4 l/m 0 min 2 min 20 W/m 33,5 km/h (5 Bft)
19.12.2014 13:12 11,0 C 9,4 C 97 % 1010,3 hPa 0,2 l/m 0 min 0 min 30 W/m 23,0 km/h (4 Bft)
19.12.2014 13:14 11,0 C 9,4 C 97 % 1010,4 hPa 0,0 l/m 0 min 0 min 32 W/m 37,7 km/h (5 Bft)
19.12.2014 13:16 10,9 C 9,4 C 97 % 1010,4 hPa 0,2 l/m 0 min 0 min 29 W/m 37,7 km/h (5 Bft)
19.12.2014 13:18 10,9 C 8,9 C 97 % 1010,5 hPa 0,0 l/m 0 min 2 min 29 W/m 35,6 km/h (5 Bft)
19.12.2014 13:20 10,7 C 8,9 C 97 % 1010,5 hPa 0,2 l/m 0 min 0 min 38 W/m 33,5 km/h (5 Bft)
19.12.2014 13:22 10,6 C 8,3 C 97 % 1010,5 hPa 0,0 l/m 0 min 0 min 42 W/m 29,3 km/h (5 Bft)
19.12.2014 13:24 10,4 C 8,3 C 97 % 1010,5 hPa 0,0 l/m 0 min 0 min 47 W/m 29,3 km/h (5 Bft)
19.12.2014 13:26 10,4 C 8,3 C 97 % 1010,5 hPa 0,0 l/m 0 min 0 min 54 W/m 27,2 km/h (4 Bft)
19.12.2014 13:28 10,3 C 8,3 C 97 % 1010,5 hPa 0,2 l/m 0 min 0 min 58 W/m 27,2 km/h (4 Bft)
19.12.2014 13:30 10,2 C 8,3 C 97 % 1010,5 hPa 0,0 l/m 0 min 2 min 62 W/m 27,2 km/h (4 Bft)
19.12.2014 13:32 10,1 C 8,3 C 97 % 1010,5 hPa 0,0 l/m 0 min 0 min 52 W/m 23,0 km/h (4 Bft)
19.12.2014 13:34 10,1 C 8,3 C 97 % 1010,5 hPa 0,0 l/m 0 min 2 min 44 W/m 27,2 km/h (4 Bft)
19.12.2014 13:36 10,0 C 8,3 C 97 % 1010,4 hPa 0,2 l/m 0 min 0 min 40 W/m 18,8 km/h (3 Bft)
19.12.2014 13:38 9,9 C 8,3 C 97 % 1010,3 hPa 0,0 l/m 0 min 0 min 37 W/m 23,0 km/h (4 Bft)
19.12.2014 13:40 9,9 C 8,3 C 97 % 1010,5 hPa 0,0 l/m 0 min 2 min 32 W/m 25,1 km/h (4 Bft)
19.12.2014 13:42 9,8 C 8,3 C 97 % 1010,5 hPa 0,0 l/m 0 min 2 min 31 W/m 16,7 km/h (3 Bft)
19.12.2014 13:44 9,8 C 8,3 C 97 % 1010,5 hPa 0,0 l/m 0 min 2 min 32 W/m 18,8 km/h (3 Bft)
19.12.2014 13:46 9,7 C 8,3 C 97 % 1010,8 hPa 0,0 l/m 0 min 2 min 32 W/m 16,7 km/h (3 Bft)
19.12.2014 13:48 9,7 C 7,8 C 97 % 1010,9 hPa 0,0 l/m 0 min 2 min 33 W/m 25,1 km/h (4 Bft)
19.12.2014 13:50 9,7 C 7,8 C 97 % 1010,9 hPa 0,0 l/m 0 min 2 min 33 W/m 23,0 km/h (4 Bft)
19.12.2014 13:52 9,6 C 7,8 C 97 % 1010,9 hPa 0,0 l/m 0 min 2 min 36 W/m 20,9 km/h (4 Bft)
19.12.2014 13:54 9,6 C 7,8 C 97 % 1010,8 hPa 0,0 l/m 0 min 2 min 36 W/m 20,9 km/h (4 Bft)
19.12.2014 13:56 9,5 C 7,8 C 97 % 1010,9 hPa 0,2 l/m 0 min 2 min 32 W/m 23,0 km/h (4 Bft)
19.12.2014 13:58 9,5 C 7,8 C 97 % 1011,1 hPa 0,0 l/m 0 min 2 min 28 W/m 20,9 km/h (4 Bft)
19.12.2014 14:00 9,4 C 7,8 C 97 % 1011,0 hPa 0,0 l/m 0 min 2 min 29 W/m 16,7 km/h (3 Bft)
19.12.2014 14:02 9,4 C 7,8 C 97 % 1011,1 hPa 0,0 l/m 0 min 2 min 30 W/m 25,1 km/h (4 Bft)
19.12.2014 14:04 9,4 C 7,8 C 97 % 1010,9 hPa 0,2 l/m 0 min 2 min 33 W/m 18,8 km/h (3 Bft)
19.12.2014 14:06 9,4 C 7,8 C 97 % 1011,2 hPa 0,0 l/m 0 min 0 min 29 W/m 23,0 km/h (4 Bft)
19.12.2014 14:08 9,3 C 7,8 C 97 % 1011,2 hPa 0,0 l/m 0 min 0 min 23 W/m 29,3 km/h (5 Bft)
19.12.2014 14:10 9,3 C 7,8 C 97 % 1011,1 hPa 0,0 l/m 0 min 0 min 14 W/m 23,0 km/h (4 Bft)
19.12.2014 14:12 9,3 C 7,8 C 97 % 1010,9 hPa 0,0 l/m 0 min 2 min 14 W/m 20,9 km/h (4 Bft)
19.12.2014 14:14 9,2 C 7,8 C 97 % 1011,1 hPa 0,2 l/m 0 min 0 min 17 W/m 27,2 km/h (4 Bft)
19.12.2014 14:16 9,2 C 7,8 C 97 % 1011,4 hPa 0,0 l/m 0 min 0 min 19 W/m 23,0 km/h (4 Bft)
19.12.2014 14:18 9,2 C 7,8 C 96 % 1011,5 hPa 0,2 l/m 0 min 0 min 21 W/m 18,8 km/h (3 Bft)
19.12.2014 14:20 9,2 C 7,8 C 96 % 1011,5 hPa 0,0 l/m 0 min 0 min 13 W/m 23,0 km/h (4 Bft)
19.12.2014 14:22 9,2 C 7,8 C 96 % 1011,5 hPa 0,0 l/m 0 min 0 min 9 W/m 18,8 km/h (3 Bft)
19.12.2014 14:24 9,1 C 7,8 C 96 % 1011,5 hPa 0,0 l/m 0 min 0 min 9 W/m 20,9 km/h (4 Bft)
19.12.2014 14:26 9,1 C 7,8 C 96 % 1011,5 hPa 0,0 l/m 0 min 0 min 10 W/m 27,2 km/h (4 Bft)
19.12.2014 14:28 9,1 C 7,2 C 97 % 1011,5 hPa 0,0 l/m 0 min 2 min 15 W/m 29,3 km/h (5 Bft)
19.12.2014 14:30 9,0 C 7,2 C 97 % 1011,6 hPa 0,0 l/m 0 min 2 min 20 W/m 23,0 km/h (4 Bft)
19.12.2014 14:32 8,9 C 7,2 C 97 % 1011,5 hPa 0,2 l/m 0 min 0 min 19 W/m 16,7 km/h (3 Bft)
19.12.2014 14:34 8,9 C 7,8 C 97 % 1011,7 hPa 0,0 l/m 0 min 0 min 18 W/m 16,7 km/h (3 Bft)
19.12.2014 14:36 8,9 C 7,8 C 97 % 1011,7 hPa 0,0 l/m 0 min 0 min 17 W/m 20,9 km/h (4 Bft)
19.12.2014 14:38 8,9 C 7,2 C 97 % 1011,8 hPa 0,0 l/m 0 min 0 min 16 W/m 20,9 km/h (4 Bft)
19.12.2014 14:40 8,9 C 7,2 C 96 % 1011,9 hPa 0,0 l/m 0 min 0 min 20 W/m 25,1 km/h (4 Bft)
19.12.2014 14:42 8,9 C 7,2 C 96 % 1011,7 hPa 0,0 l/m 0 min 0 min 30 W/m 20,9 km/h (4 Bft)
19.12.2014 14:44 8,9 C 7,2 C 96 % 1011,9 hPa 0,0 l/m 0 min 0 min 32 W/m 20,9 km/h (4 Bft)
19.12.2014 14:46 8,9 C 7,8 C 96 % 1011,9 hPa 0,0 l/m 0 min 0 min 29 W/m 20,9 km/h (4 Bft)
19.12.2014 14:48 8,8 C 7,8 C 96 % 1012,0 hPa 0,0 l/m 0 min 0 min 38 W/m 25,1 km/h (4 Bft)
19.12.2014 14:50 8,8 C 7,8 C 96 % 1012,0 hPa 0,0 l/m 0 min 0 min 41 W/m 16,7 km/h (3 Bft)
19.12.2014 14:52 8,8 C 7,2 C 96 % 1012,0 hPa 0,0 l/m 0 min 0 min 44 W/m 18,8 km/h (3 Bft)
19.12.2014 14:54 8,8 C 7,2 C 97 % 1012,1 hPa 0,0 l/m 0 min 0 min 44 W/m 20,9 km/h (4 Bft)
19.12.2014 14:56 8,8 C 7,2 C 96 % 1012,0 hPa 0,0 l/m 0 min 0 min 45 W/m 18,8 km/h (3 Bft)
19.12.2014 14:58 8,7 C 7,2 C 96 % 1012,1 hPa 0,0 l/m 0 min 0 min 40 W/m 18,8 km/h (3 Bft)
19.12.2014 15:00 8,7 C 7,2 C 97 % 1012,1 hPa 0,0 l/m 0 min 0 min 37 W/m 16,7 km/h (3 Bft)
19.12.2014 15:02 8,7 C 7,2 C 97 % 1012,3 hPa 0,0 l/m 0 min 0 min 36 W/m 23,0 km/h (4 Bft)
19.12.2014 15:04 8,6 C 7,2 C 97 % 1012,2 hPa 0,0 l/m 0 min 0 min 41 W/m 27,2 km/h (4 Bft)
19.12.2014 15:06 8,5 C 7,2 C 96 % 1012,2 hPa 0,0 l/m 0 min 0 min 42 W/m 23,0 km/h (4 Bft)
19.12.2014 15:08 8,4 C 7,2 C 96 % 1012,3 hPa 0,0 l/m 0 min 0 min 37 W/m 23,0 km/h (4 Bft)
19.12.2014 15:10 8,4 C 7,2 C 96 % 1012,4 hPa 0,0 l/m 0 min 0 min 36 W/m 20,9 km/h (4 Bft)
19.12.2014 15:12 8,3 C 7,2 C 96 % 1012,3 hPa 0,0 l/m 0 min 0 min 38 W/m 27,2 km/h (4 Bft)
19.12.2014 15:14 8,2 C 7,2 C 96 % 1012,3 hPa 0,0 l/m 0 min 0 min 37 W/m 23,0 km/h (4 Bft)
19.12.2014 15:16 8,2 C 7,2 C 96 % 1012,3 hPa 0,0 l/m 0 min 0 min 37 W/m 18,8 km/h (3 Bft)
19.12.2014 15:18 8,2 C 7,2 C 96 % 1012,4 hPa 0,0 l/m 0 min 0 min 33 W/m 14,6 km/h (3 Bft)
19.12.2014 15:20 8,2 C 7,2 C 96 % 1012,4 hPa 0,0 l/m 0 min 0 min 28 W/m 20,9 km/h (4 Bft)
19.12.2014 15:22 8,2 C 7,2 C 96 % 1012,5 hPa 0,0 l/m 0 min 0 min 26 W/m 20,9 km/h (4 Bft)
19.12.2014 15:24 8,2 C 7,2 C 96 % 1012,5 hPa 0,0 l/m 0 min 0 min 26 W/m 16,7 km/h (3 Bft)
19.12.2014 15:26 8,2 C 7,2 C 96 % 1012,4 hPa 0,0 l/m 0 min 0 min 30 W/m 20,9 km/h (4 Bft)
19.12.2014 15:28 8,2 C 7,2 C 96 % 1012,5 hPa 0,0 l/m 0 min 0 min 30 W/m 14,6 km/h (3 Bft)
19.12.2014 15:30 8,2 C 7,2 C 96 % 1012,6 hPa 0,0 l/m 0 min 0 min 31 W/m 18,8 km/h (3 Bft)
19.12.2014 15:32 8,2 C 7,2 C 96 % 1012,6 hPa 0,0 l/m 0 min 0 min 36 W/m 27,2 km/h (4 Bft)
19.12.2014 15:34 8,2 C 7,2 C 95 % 1012,8 hPa 0,0 l/m 0 min 0 min 40 W/m 20,9 km/h (4 Bft)
19.12.2014 15:36 8,2 C 7,2 C 95 % 1012,8 hPa 0,0 l/m 0 min 0 min 40 W/m 27,2 km/h (4 Bft)
19.12.2014 15:38 8,2 C 6,7 C 95 % 1012,8 hPa 0,0 l/m 0 min 0 min 34 W/m 18,8 km/h (3 Bft)
19.12.2014 15:40 8,2 C 6,7 C 95 % 1013,0 hPa 0,0 l/m 0 min 0 min 39 W/m 18,8 km/h (3 Bft)
19.12.2014 15:42 8,2 C 6,7 C 95 % 1012,9 hPa 0,0 l/m 0 min 0 min 33 W/m 16,7 km/h (3 Bft)
19.12.2014 15:44 8,2 C 6,7 C 95 % 1013,0 hPa 0,0 l/m 0 min 0 min 25 W/m 18,8 km/h (3 Bft)
19.12.2014 15:46 8,2 C 6,7 C 95 % 1013,0 hPa 0,0 l/m 0 min 0 min 21 W/m 12,6 km/h (3 Bft)
19.12.2014 15:48 8,1 C 6,7 C 95 % 1013,1 hPa 0,0 l/m 0 min 0 min 20 W/m 23,0 km/h (4 Bft)
19.12.2014 15:50 8,1 C 6,7 C 95 % 1013,0 hPa 0,0 l/m 0 min 0 min 19 W/m 31,4 km/h (5 Bft)
19.12.2014 15:52 8,0 C 6,7 C 95 % 1013,1 hPa 0,0 l/m 0 min 0 min 19 W/m 16,7 km/h (3 Bft)
19.12.2014 15:54 7,9 C 6,1 C 95 % 1013,2 hPa 0,0 l/m 0 min 0 min 19 W/m 20,9 km/h (4 Bft)
19.12.2014 15:56 7,9 C 6,1 C 94 % 1013,2 hPa 0,0 l/m 0 min 0 min 19 W/m 18,8 km/h (3 Bft)
19.12.2014 15:58 7,8 C 6,1 C 94 % 1013,2 hPa 0,0 l/m 0 min 0 min 18 W/m 20,9 km/h (4 Bft)
19.12.2014 16:00 7,8 C 6,1 C 94 % 1013,2 hPa 0,0 l/m 0 min 0 min 19 W/m 33,5 km/h (5 Bft)
19.12.2014 16:02 7,7 C 6,1 C 94 % 1013,3 hPa 0,0 l/m 0 min 0 min 19 W/m 25,1 km/h (4 Bft)
19.12.2014 16:04 7,6 C 6,1 C 93 % 1013,3 hPa 0,0 l/m 2 min 0 min 19 W/m 20,9 km/h (4 Bft)
19.12.2014 16:06 7,6 C 5,6 C 93 % 1013,3 hPa 0,0 l/m 2 min 0 min 19 W/m 25,1 km/h (4 Bft)
19.12.2014 16:08 7,5 C 5,6 C 92 % 1013,3 hPa 0,0 l/m 2 min 0 min 19 W/m 20,9 km/h (4 Bft)
19.12.2014 16:10 7,5 C 5,6 C 92 % 1013,3 hPa 0,0 l/m 2 min 0 min 18 W/m 14,6 km/h (3 Bft)
19.12.2014 16:12 7,4 C 5,6 C 92 % 1013,3 hPa 0,0 l/m 2 min 0 min 16 W/m 14,6 km/h (3 Bft)
19.12.2014 16:14 7,4 C 5,6 C 92 % 1013,3 hPa 0,0 l/m 0 min 0 min 15 W/m 14,6 km/h (3 Bft)
19.12.2014 16:16 7,4 C 5,6 C 91 % 1013,3 hPa 0,0 l/m 0 min 0 min 13 W/m 23,0 km/h (4 Bft)
19.12.2014 16:18 7,4 C 5,6 C 91 % 1013,4 hPa 0,0 l/m 0 min 0 min 12 W/m 16,7 km/h (3 Bft)
19.12.2014 16:20 7,4 C 5,6 C 91 % 1013,4 hPa 0,0 l/m 0 min 0 min 11 W/m 14,6 km/h (3 Bft)
19.12.2014 16:22 7,3 C 5,6 C 91 % 1013,4 hPa 0,0 l/m 0 min 0 min 9 W/m 12,6 km/h (3 Bft)
19.12.2014 16:24 7,3 C 5,6 C 91 % 1013,5 hPa 0,0 l/m 0 min 0 min 7 W/m 27,2 km/h (4 Bft)
19.12.2014 16:26 7,3 C 5,6 C 90 % 1013,6 hPa 0,0 l/m 0 min 0 min 7 W/m 31,4 km/h (5 Bft)
19.12.2014 16:28 7,2 C 5,6 C 91 % 1013,6 hPa 0,0 l/m 0 min 0 min 5 W/m 23,0 km/h (4 Bft)
19.12.2014 16:30 7,2 C 5,6 C 90 % 1013,7 hPa 0,0 l/m 0 min 0 min 5 W/m 16,7 km/h (3 Bft)
19.12.2014 16:32 7,2 C 5,6 C 90 % 1013,9 hPa 0,0 l/m 0 min 0 min 4 W/m 25,1 km/h (4 Bft)
19.12.2014 16:34 7,1 C 5,6 C 90 % 1013,9 hPa 0,0 l/m 0 min 0 min 0 W/m 14,6 km/h (3 Bft)
19.12.2014 16:36 7,1 C 5,0 C 90 % 1013,9 hPa 0,0 l/m 0 min 0 min 0 W/m 16,7 km/h (3 Bft)
19.12.2014 16:38 7,1 C 5,0 C 90 % 1013,9 hPa 0,0 l/m 0 min 0 min 0 W/m 18,8 km/h (3 Bft)
19.12.2014 16:40 7,1 C 5,0 C 90 % 1013,9 hPa 0,0 l/m 0 min 0 min 0 W/m 25,1 km/h (4 Bft)
19.12.2014 16:42 7,1 C 5,0 C 89 % 1013,9 hPa 0,0 l/m 0 min 0 min 0 W/m 14,6 km/h (3 Bft)
19.12.2014 16:44 7,0 C 5,0 C 89 % 1014,0 hPa 0,0 l/m 0 min 0 min 0 W/m 14,6 km/h (3 Bft)
19.12.2014 16:46 7,0 C 5,0 C 89 % 1014,0 hPa 0,0 l/m 0 min 0 min 0 W/m 14,6 km/h (3 Bft)
19.12.2014 16:48 6,9 C 5,0 C 89 % 1014,0 hPa 0,0 l/m 0 min 0 min 0 W/m 25,1 km/h (4 Bft)
19.12.2014 16:50 6,9 C 5,0 C 89 % 1014,0 hPa 0,0 l/m 0 min 0 min 0 W/m 20,9 km/h (4 Bft)
19.12.2014 16:52 6,9 C 5,0 C 89 % 1014,1 hPa 0,0 l/m 0 min 0 min 0 W/m 16,7 km/h (3 Bft)
19.12.2014 16:54 6,9 C 5,0 C 89 % 1014,1 hPa 0,0 l/m 0 min 0 min 0 W/m 20,9 km/h (4 Bft)
19.12.2014 16:56 6,8 C 5,0 C 88 % 1014,2 hPa 0,0 l/m 0 min 0 min 0 W/m 16,7 km/h (3 Bft)
19.12.2014 16:58 6,8 C 5,0 C 88 % 1014,2 hPa 0,0 l/m 0 min 0 min 0 W/m 16,7 km/h (3 Bft)
19.12.2014 17:00 6,8 C 5,0 C 88 % 1014,2 hPa 0,0 l/m 0 min 0 min 0 W/m 12,6 km/h (3 Bft)
19.12.2014 17:02 6,8 C 5,0 C 88 % 1014,2 hPa 0,0 l/m 0 min 0 min 0 W/m 16,7 km/h (3 Bft)
19.12.2014 17:04 6,7 C 4,4 C 88 % 1014,3 hPa 0,0 l/m 0 min 0 min 0 W/m 14,6 km/h (3 Bft)
19.12.2014 17:06 6,7 C 4,4 C 88 % 1014,3 hPa 0,0 l/m 0 min 0 min 0 W/m 16,7 km/h (3 Bft)
19.12.2014 17:08 6,7 C 4,4 C 88 % 1014,2 hPa 0,0 l/m 0 min 0 min 0 W/m 12,6 km/h (3 Bft)
19.12.2014 17:10 6,7 C 4,4 C 88 % 1014,4 hPa 0,0 l/m 0 min 0 min 0 W/m 16,7 km/h (3 Bft)
19.12.2014 17:12 6,6 C 4,4 C 88 % 1014,5 hPa 0,0 l/m 0 min 0 min 0 W/m 14,6 km/h (3 Bft)
19.12.2014 17:14 6,6 C 4,4 C 88 % 1014,5 hPa 0,0 l/m 0 min 0 min 0 W/m 16,7 km/h (3 Bft)
19.12.2014 17:16 6,6 C 4,4 C 89 % 1014,5 hPa 0,0 l/m 0 min 0 min 0 W/m 20,9 km/h (4 Bft)
19.12.2014 17:18 6,6 C 4,4 C 89 % 1014,5 hPa 0,0 l/m 0 min 0 min 0 W/m 16,7 km/h (3 Bft)
19.12.2014 17:20 6,6 C 4,4 C 89 % 1014,6 hPa 0,0 l/m 0 min 0 min 0 W/m 25,1 km/h (4 Bft)
19.12.2014 17:22 6,5 C 4,4 C 89 % 1014,7 hPa 0,0 l/m 0 min 0 min 0 W/m 16,7 km/h (3 Bft)
19.12.2014 17:24 6,5 C 4,4 C 89 % 1014,7 hPa 0,0 l/m 0 min 0 min 0 W/m 16,7 km/h (3 Bft)
19.12.2014 17:26 6,4 C 4,4 C 89 % 1014,5 hPa 0,0 l/m 0 min 0 min 0 W/m 18,8 km/h (3 Bft)
19.12.2014 17:28 6,4 C 4,4 C 89 % 1014,7 hPa 0,0 l/m 0 min 0 min 0 W/m 18,8 km/h (3 Bft)
19.12.2014 17:30 6,4 C 4,4 C 89 % 1014,7 hPa 0,0 l/m 0 min 0 min 0 W/m 14,6 km/h (3 Bft)
19.12.2014 17:32 6,4 C 4,4 C 89 % 1014,8 hPa 0,0 l/m 0 min 0 min 0 W/m 20,9 km/h (4 Bft)
19.12.2014 17:34 6,4 C 4,4 C 89 % 1014,8 hPa 0,0 l/m 0 min 0 min 0 W/m 23,0 km/h (4 Bft)
19.12.2014 17:36 6,4 C 4,4 C 89 % 1014,9 hPa 0,0 l/m 0 min 0 min 0 W/m 16,7 km/h (3 Bft)
19.12.2014 17:38 6,4 C 4,4 C 89 % 1014,9 hPa 0,0 l/m 0 min 0 min 0 W/m 20,9 km/h (4 Bft)
19.12.2014 17:40 6,4 C 4,4 C 89 % 1015,0 hPa 0,0 l/m 0 min 0 min 0 W/m 20,9 km/h (4 Bft)
19.12.2014 17:42 6,3 C 4,4 C 89 % 1015,0 hPa 0,0 l/m 0 min 0 min 0 W/m 14,6 km/h (3 Bft)
19.12.2014 17:44 6,3 C 4,4 C 89 % 1015,0 hPa 0,0 l/m 0 min 0 min 0 W/m 23,0 km/h (4 Bft)
19.12.2014 17:46 6,3 C 4,4 C 89 % 1015,0 hPa 0,0 l/m 0 min 0 min 0 W/m 25,1 km/h (4 Bft)
19.12.2014 17:48 6,3 C 4,4 C 89 % 1015,0 hPa 0,0 l/m 0 min 0 min 0 W/m 20,9 km/h (4 Bft)
19.12.2014 17:50 6,3 C 4,4 C 89 % 1015,0 hPa 0,0 l/m 0 min 0 min 0 W/m 18,8 km/h (3 Bft)
19.12.2014 17:52 6,3 C 4,4 C 89 % 1015,1 hPa 0,0 l/m 0 min 0 min 0 W/m 18,8 km/h (3 Bft)
19.12.2014 17:54 6,3 C 4,4 C 89 % 1015,0 hPa 0,0 l/m 0 min 0 min 0 W/m 18,8 km/h (3 Bft)
19.12.2014 17:56 6,2 C 4,4 C 89 % 1015,2 hPa 0,0 l/m 0 min 0 min 0 W/m 14,6 km/h (3 Bft)
19.12.2014 17:58 6,2 C 4,4 C 89 % 1015,2 hPa 0,0 l/m 0 min 0 min 0 W/m 14,6 km/h (3 Bft)
19.12.2014 18:00 6,2 C 4,4 C 89 % 1015,2 hPa 0,0 l/m 0 min 0 min 0 W/m 18,8 km/h (3 Bft)
19.12.2014 18:02 6,2 C 4,4 C 89 % 1015,2 hPa 0,0 l/m 0 min 0 min 0 W/m 14,6 km/h (3 Bft)
19.12.2014 18:05 6,1 C 4,4 C 89 % 1015,2 hPa 0,0 l/m 0 min 0 min 0 W/m 27,2 km/h (4 Bft)
19.12.2014 18:06 6,1 C 4,4 C 89 % 1015,2 hPa 0,0 l/m 0 min 0 min 0 W/m 23,0 km/h (4 Bft)
19.12.2014 18:08 6,1 C 4,4 C 89 % 1015,2 hPa 0,0 l/m 0 min 0 min 0 W/m 16,7 km/h (3 Bft)
19.12.2014 18:10 6,1 C 4,4 C 89 % 1015,1 hPa 0,0 l/m 0 min 0 min 0 W/m 14,6 km/h (3 Bft)
19.12.2014 18:12 6,1 C 4,4 C 89 % 1015,2 hPa 0,0 l/m 0 min 0 min 0 W/m 18,8 km/h (3 Bft)
19.12.2014 18:14 6,1 C 4,4 C 89 % 1015,2 hPa 0,0 l/m 0 min 0 min 0 W/m 18,8 km/h (3 Bft)
19.12.2014 18:16 6,1 C 3,9 C 89 % 1015,2 hPa 0,0 l/m 0 min 0 min 0 W/m 16,7 km/h (3 Bft)
19.12.2014 18:18 6,0 C 4,4 C 89 % 1015,3 hPa 0,0 l/m 0 min 0 min 0 W/m 18,8 km/h (3 Bft)
19.12.2014 18:20 6,0 C 3,9 C 89 % 1015,3 hPa 0,0 l/m 0 min 0 min 0 W/m 18,8 km/h (3 Bft)
19.12.2014 18:22 5,9 C 3,9 C 89 % 1015,3 hPa 0,0 l/m 0 min 0 min 0 W/m 20,9 km/h (4 Bft)
19.12.2014 18:24 5,9 C 4,4 C 89 % 1015,4 hPa 0,0 l/m 0 min 0 min 0 W/m 18,8 km/h (3 Bft)
19.12.2014 18:26 5,9 C 4,4 C 89 % 1015,5 hPa 0,0 l/m 0 min 0 min 0 W/m 23,0 km/h (4 Bft)
19.12.2014 18:28 5,9 C 3,9 C 90 % 1015,6 hPa 0,0 l/m 0 min 0 min 0 W/m 16,7 km/h (3 Bft)
19.12.2014 18:30 5,9 C 3,9 C 90 % 1015,7 hPa 0,0 l/m 0 min 0 min 0 W/m 16,7 km/h (3 Bft)
19.12.2014 18:32 5,9 C 3,9 C 90 % 1015,7 hPa 0,0 l/m 0 min 0 min 0 W/m 18,8 km/h (3 Bft)
19.12.2014 18:34 5,8 C 3,9 C 90 % 1015,7 hPa 0,0 l/m 0 min 0 min 0 W/m 18,8 km/h (3 Bft)
19.12.2014 18:36 5,8 C 4,4 C 90 % 1015,7 hPa 0,0 l/m 0 min 0 min 0 W/m 18,8 km/h (3 Bft)
19.12.2014 18:38 5,8 C 3,9 C 90 % 1015,7 hPa 0,0 l/m 0 min 0 min 0 W/m 14,6 km/h (3 Bft)
19.12.2014 18:40 5,8 C 4,4 C 90 % 1015,7 hPa 0,0 l/m 0 min 0 min 0 W/m 20,9 km/h (4 Bft)
19.12.2014 18:42 5,8 C 4,4 C 90 % 1015,6 hPa 0,0 l/m 0 min 0 min 0 W/m 18,8 km/h (3 Bft)
19.12.2014 18:44 5,8 C 4,4 C 90 % 1015,7 hPa 0,0 l/m 0 min 0 min 0 W/m 14,6 km/h (3 Bft)
19.12.2014 18:46 5,8 C 4,4 C 90 % 1015,7 hPa 0,0 l/m 0 min 0 min 0 W/m 23,0 km/h (4 Bft)
19.12.2014 18:48 5,8 C 4,4 C 90 % 1015,7 hPa 0,0 l/m 0 min 0 min 0 W/m 20,9 km/h (4 Bft)
19.12.2014 18:50 5,8 C 4,4 C 90 % 1015,7 hPa 0,0 l/m 0 min 0 min 0 W/m 18,8 km/h (3 Bft)
19.12.2014 18:52 5,8 C 4,4 C 90 % 1015,8 hPa 0,0 l/m 0 min 0 min 0 W/m 20,9 km/h (4 Bft)
19.12.2014 18:54 5,8 C 4,4 C 90 % 1015,9 hPa 0,0 l/m 0 min 0 min 0 W/m 16,7 km/h (3 Bft)
19.12.2014 18:56 5,8 C 3,9 C 90 % 1016,0 hPa 0,0 l/m 0 min 0 min 0 W/m 14,6 km/h (3 Bft)
19.12.2014 18:58 5,8 C 3,9 C 90 % 1016,1 hPa 0,0 l/m 0 min 0 min 0 W/m 16,7 km/h (3 Bft)
19.12.2014 19:00 5,8 C 3,9 C 90 % 1016,1 hPa 0,0 l/m 0 min 0 min 0 W/m 14,6 km/h (3 Bft)
19.12.2014 19:02 5,8 C 3,9 C 90 % 1016,2 hPa 0,0 l/m 0 min 0 min 0 W/m 8,4 km/h (2 Bft)
19.12.2014 19:04 5,7 C 3,9 C 90 % 1016,3 hPa 0,0 l/m 0 min 0 min 0 W/m 10,5 km/h (2 Bft)
19.12.2014 19:06 5,7 C 3,9 C 90 % 1016,3 hPa 0,0 l/m 0 min 0 min 0 W/m 16,7 km/h (3 Bft)
19.12.2014 19:08 5,7 C 3,9 C 90 % 1016,4 hPa 0,0 l/m 0 min 0 min 0 W/m 8,4 km/h (2 Bft)
19.12.2014 19:10 5,7 C 3,9 C 90 % 1016,4 hPa 0,0 l/m 0 min 0 min 0 W/m 12,6 km/h (3 Bft)
19.12.2014 19:12 5,7 C 3,9 C 90 % 1016,5 hPa 0,0 l/m 0 min 0 min 0 W/m 16,7 km/h (3 Bft)
19.12.2014 19:14 5,6 C 3,9 C 90 % 1016,6 hPa 0,0 l/m 0 min 0 min 0 W/m 14,6 km/h (3 Bft)
19.12.2014 19:16 5,6 C 3,9 C 90 % 1016,6 hPa 0,0 l/m 0 min 0 min 0 W/m 12,6 km/h (3 Bft)
19.12.2014 19:18 5,6 C 3,9 C 90 % 1016,6 hPa 0,0 l/m 0 min 0 min 0 W/m 12,6 km/h (3 Bft)
19.12.2014 19:20 5,6 C 3,9 C 90 % 1016,6 hPa 0,0 l/m 0 min 0 min 0 W/m 14,6 km/h (3 Bft)
19.12.2014 19:22 5,5 C 3,9 C 90 % 1016,6 hPa 0,0 l/m 0 min 0 min 0 W/m 12,6 km/h (3 Bft)
19.12.2014 19:24 5,5 C 3,9 C 90 % 1016,7 hPa 0,0 l/m 0 min 0 min 0 W/m 18,8 km/h (3 Bft)
19.12.2014 19:26 5,5 C 3,9 C 90 % 1016,8 hPa 0,0 l/m 0 min 0 min 0 W/m 16,7 km/h (3 Bft)
19.12.2014 19:28 5,4 C 3,9 C 90 % 1016,8 hPa 0,0 l/m 0 min 0 min 0 W/m 14,6 km/h (3 Bft)
19.12.2014 19:30 5,4 C 3,9 C 90 % 1016,9 hPa 0,0 l/m 0 min 0 min 0 W/m 12,6 km/h (3 Bft)
19.12.2014 19:32 5,4 C 3,9 C 91 % 1016,9 hPa 0,0 l/m 0 min 0 min 0 W/m 10,5 km/h (2 Bft)
19.12.2014 19:34 5,4 C 3,9 C 91 % 1017,0 hPa 0,0 l/m 0 min 0 min 0 W/m 18,8 km/h (3 Bft)
19.12.2014 19:36 5,4 C 3,9 C 91 % 1017,0 hPa 0,0 l/m 0 min 0 min 0 W/m 16,7 km/h (3 Bft)
19.12.2014 19:38 5,4 C 3,9 C 91 % 1017,0 hPa 0,0 l/m 0 min 0 min 0 W/m 14,6 km/h (3 Bft)
19.12.2014 19:40 5,4 C 3,9 C 91 % 1017,1 hPa 0,0 l/m 0 min 0 min 0 W/m 14,6 km/h (3 Bft)
19.12.2014 19:42 5,4 C 3,9 C 91 % 1017,1 hPa 0,0 l/m 0 min 0 min 0 W/m 12,6 km/h (3 Bft)
19.12.2014 19:44 5,4 C 3,9 C 91 % 1017,2 hPa 0,0 l/m 0 min 0 min 0 W/m 18,8 km/h (3 Bft)
19.12.2014 19:46 5,4 C 3,9 C 91 % 1017,2 hPa 0,0 l/m 0 min 0 min 0 W/m 16,7 km/h (3 Bft)
19.12.2014 19:48 5,4 C 3,9 C 91 % 1017,1 hPa 0,0 l/m 0 min 0 min 0 W/m 23,0 km/h (4 Bft)
19.12.2014 19:50 5,4 C 3,9 C 91 % 1017,2 hPa 0,0 l/m 0 min 0 min 0 W/m 16,7 km/h (3 Bft)
19.12.2014 19:52 5,3 C 3,9 C 91 % 1017,2 hPa 0,0 l/m 0 min 0 min 0 W/m 16,7 km/h (3 Bft)
19.12.2014 19:54 5,4 C 3,9 C 91 % 1017,3 hPa 0,0 l/m 0 min 0 min 0 W/m 14,6 km/h (3 Bft)
19.12.2014 19:56 5,3 C 3,9 C 91 % 1017,3 hPa 0,0 l/m 0 min 0 min 0 W/m 14,6 km/h (3 Bft)
19.12.2014 19:58 5,3 C 3,9 C 91 % 1017,2 hPa 0,0 l/m 0 min 0 min 0 W/m 20,9 km/h (4 Bft)
19.12.2014 20:00 5,3 C 3,9 C 91 % 1017,2 hPa 0,0 l/m 0 min 0 min 0 W/m 16,7 km/h (3 Bft)
19.12.2014 20:02 5,3 C 3,9 C 91 % 1017,2 hPa 0,0 l/m 0 min 0 min 0 W/m 16,7 km/h (3 Bft)
19.12.2014 20:04 5,3 C 3,9 C 91 % 1017,3 hPa 0,0 l/m 0 min 0 min 0 W/m 20,9 km/h (4 Bft)
19.12.2014 20:06 5,3 C 3,9 C 91 % 1017,4 hPa 0,0 l/m 0 min 0 min 0 W/m 14,6 km/h (3 Bft)
19.12.2014 20:08 5,3 C 3,9 C 91 % 1017,4 hPa 0,0 l/m 0 min 0 min 0 W/m 23,0 km/h (4 Bft)
19.12.2014 20:10 5,3 C 3,9 C 91 % 1017,4 hPa 0,0 l/m 0 min 0 min 0 W/m 18,8 km/h (3 Bft)
19.12.2014 20:12 5,3 C 3,9 C 91 % 1017,5 hPa 0,0 l/m 0 min 0 min 0 W/m 23,0 km/h (4 Bft)
19.12.2014 20:14 5,3 C 3,9 C 91 % 1017,6 hPa 0,0 l/m 0 min 0 min 0 W/m 16,7 km/h (3 Bft)
19.12.2014 20:16 5,3 C 3,9 C 91 % 1017,5 hPa 0,0 l/m 0 min 0 min 0 W/m 14,6 km/h (3 Bft)
19.12.2014 20:18 5,3 C 3,9 C 91 % 1017,6 hPa 0,0 l/m 0 min 0 min 0 W/m 16,7 km/h (3 Bft)
19.12.2014 20:20 5,3 C 3,9 C 91 % 1017,6 hPa 0,0 l/m 0 min 0 min 0 W/m 20,9 km/h (4 Bft)
19.12.2014 20:22 5,3 C 3,9 C 91 % 1017,6 hPa 0,0 l/m 0 min 0 min 0 W/m 18,8 km/h (3 Bft)
19.12.2014 20:24 5,3 C 3,9 C 91 % 1017,6 hPa 0,0 l/m 0 min 0 min 0 W/m 25,1 km/h (4 Bft)
19.12.2014 20:26 5,3 C 3,9 C 91 % 1017,6 hPa 0,0 l/m 0 min 0 min 0 W/m 16,7 km/h (3 Bft)
19.12.2014 20:28 5,3 C 3,9 C 91 % 1017,7 hPa 0,0 l/m 0 min 0 min 0 W/m 23,0 km/h (4 Bft)
19.12.2014 20:30 5,3 C 3,9 C 91 % 1017,7 hPa 0,0 l/m 0 min 0 min 0 W/m 16,7 km/h (3 Bft)
19.12.2014 20:32 5,3 C 3,9 C 90 % 1017,7 hPa 0,0 l/m 0 min 0 min 0 W/m 14,6 km/h (3 Bft)
19.12.2014 20:34 5,3 C 3,9 C 90 % 1017,7 hPa 0,0 l/m 0 min 0 min 0 W/m 20,9 km/h (4 Bft)
19.12.2014 20:36 5,3 C 3,9 C 90 % 1017,7 hPa 0,0 l/m 0 min 0 min 0 W/m 20,9 km/h (4 Bft)
19.12.2014 20:38 5,3 C 3,9 C 90 % 1017,7 hPa 0,0 l/m 0 min 0 min 0 W/m 16,7 km/h (3 Bft)
19.12.2014 20:40 5,3 C 3,9 C 90 % 1017,8 hPa 0,0 l/m 0 min 0 min 0 W/m 20,9 km/h (4 Bft)
19.12.2014 20:42 5,3 C 3,9 C 90 % 1017,8 hPa 0,0 l/m 0 min 0 min 0 W/m 16,7 km/h (3 Bft)
19.12.2014 20:44 5,3 C 3,9 C 90 % 1017,7 hPa 0,0 l/m 0 min 0 min 0 W/m 23,0 km/h (4 Bft)
19.12.2014 20:46 5,3 C 3,9 C 90 % 1017,8 hPa 0,0 l/m 0 min 0 min 0 W/m 14,6 km/h (3 Bft)
19.12.2014 20:48 5,3 C 3,9 C 90 % 1017,9 hPa 0,0 l/m 0 min 0 min 0 W/m 18,8 km/h (3 Bft)
19.12.2014 20:50 5,3 C 3,9 C 90 % 1017,9 hPa 0,0 l/m 0 min 0 min 0 W/m 20,9 km/h (4 Bft)
19.12.2014 20:52 5,3 C 3,9 C 90 % 1017,9 hPa 0,0 l/m 0 min 0 min 0 W/m 29,3 km/h (5 Bft)
19.12.2014 20:54 5,3 C 3,9 C 90 % 1018,0 hPa 0,0 l/m 0 min 0 min 0 W/m 18,8 km/h (3 Bft)
19.12.2014 20:56 5,3 C 3,9 C 90 % 1017,9 hPa 0,0 l/m 0 min 0 min 0 W/m 20,9 km/h (4 Bft)
19.12.2014 20:58 5,3 C 3,9 C 90 % 1018,0 hPa 0,0 l/m 0 min 0 min 0 W/m 25,1 km/h (4 Bft)
19.12.2014 21:00 5,3 C 3,9 C 90 % 1018,0 hPa 0,0 l/m 0 min 0 min 0 W/m 20,9 km/h (4 Bft)
19.12.2014 21:02 5,3 C 3,9 C 90 % 1017,9 hPa 0,0 l/m 0 min 0 min 0 W/m 23,0 km/h (4 Bft)
19.12.2014 21:04 5,3 C 3,9 C 90 % 1017,9 hPa 0,0 l/m 0 min 0 min 0 W/m 23,0 km/h (4 Bft)
19.12.2014 21:06 5,3 C 3,9 C 90 % 1017,9 hPa 0,0 l/m 0 min 0 min 0 W/m 23,0 km/h (4 Bft)
19.12.2014 21:08 5,3 C 3,9 C 90 % 1017,9 hPa 0,0 l/m 0 min 0 min 0 W/m 27,2 km/h (4 Bft)
19.12.2014 21:10 5,3 C 3,9 C 90 % 1017,8 hPa 0,0 l/m 0 min 0 min 0 W/m 33,5 km/h (5 Bft)
19.12.2014 21:12 5,4 C 3,9 C 90 % 1017,8 hPa 0,0 l/m 0 min 0 min 0 W/m 27,2 km/h (4 Bft)
19.12.2014 21:14 5,4 C 3,9 C 90 % 1017,8 hPa 0,0 l/m 0 min 0 min 0 W/m 27,2 km/h (4 Bft)
19.12.2014 21:16 5,4 C 3,9 C 90 % 1017,8 hPa 0,0 l/m 0 min 0 min 0 W/m 31,4 km/h (5 Bft)
19.12.2014 21:18 5,4 C 3,9 C 90 % 1017,8 hPa 0,0 l/m 0 min 0 min 0 W/m 29,3 km/h (5 Bft)
19.12.2014 21:20 5,4 C 4,4 C 90 % 1017,9 hPa 0,0 l/m 0 min 0 min 0 W/m 31,4 km/h (5 Bft)
19.12.2014 21:22 5,4 C 4,4 C 90 % 1017,8 hPa 0,0 l/m 0 min 0 min 0 W/m 25,1 km/h (4 Bft)
19.12.2014 21:24 5,4 C 3,9 C 90 % 1017,9 hPa 0,0 l/m 0 min 0 min 0 W/m 25,1 km/h (4 Bft)
19.12.2014 21:26 5,5 C 3,9 C 90 % 1017,9 hPa 0,0 l/m 0 min 0 min 0 W/m 37,7 km/h (5 Bft)
19.12.2014 21:28 5,5 C 3,9 C 90 % 1018,0 hPa 0,0 l/m 0 min 0 min 0 W/m 29,3 km/h (5 Bft)
19.12.2014 21:30 5,5 C 3,9 C 90 % 1018,1 hPa 0,0 l/m 0 min 0 min 0 W/m 25,1 km/h (4 Bft)
19.12.2014 21:32 5,5 C 3,9 C 90 % 1018,0 hPa 0,0 l/m 0 min 0 min 0 W/m 29,3 km/h (5 Bft)
19.12.2014 21:34 5,5 C 3,9 C 90 % 1018,1 hPa 0,0 l/m 0 min 0 min 0 W/m 29,3 km/h (5 Bft)
19.12.2014 21:36 5,5 C 3,9 C 90 % 1018,0 hPa 0,0 l/m 0 min 0 min 0 W/m 29,3 km/h (5 Bft)
19.12.2014 21:38 5,5 C 3,9 C 90 % 1018,0 hPa 0,0 l/m 0 min 0 min 0 W/m 27,2 km/h (4 Bft)
19.12.2014 21:40 5,5 C 3,9 C 90 % 1018,0 hPa 0,0 l/m 0 min 0 min 0 W/m 33,5 km/h (5 Bft)
19.12.2014 21:42 5,6 C 4,4 C 90 % 1018,1 hPa 0,0 l/m 0 min 0 min 0 W/m 35,6 km/h (5 Bft)
19.12.2014 21:44 5,6 C 4,4 C 90 % 1018,2 hPa 0,0 l/m 0 min 0 min 0 W/m 29,3 km/h (5 Bft)
19.12.2014 21:46 5,6 C 3,9 C 90 % 1018,2 hPa 0,0 l/m 0 min 0 min 0 W/m 25,1 km/h (4 Bft)
19.12.2014 21:48 5,6 C 3,9 C 90 % 1018,3 hPa 0,0 l/m 0 min 0 min 0 W/m 25,1 km/h (4 Bft)
19.12.2014 21:50 5,5 C 3,9 C 90 % 1018,3 hPa 0,0 l/m 0 min 0 min 0 W/m 18,8 km/h (3 Bft)
19.12.2014 21:52 5,5 C 3,9 C 90 % 1018,3 hPa 0,0 l/m 0 min 0 min 0 W/m 23,0 km/h (4 Bft)
19.12.2014 21:54 5,5 C 3,9 C 90 % 1018,4 hPa 0,0 l/m 0 min 0 min 0 W/m 31,4 km/h (5 Bft)
19.12.2014 21:56 5,5 C 3,9 C 90 % 1018,4 hPa 0,0 l/m 0 min 0 min 0 W/m 23,0 km/h (4 Bft)
19.12.2014 21:58 5,5 C 3,9 C 90 % 1018,5 hPa 0,0 l/m 0 min 0 min 0 W/m 29,3 km/h (5 Bft)
19.12.2014 22:00 5,5 C 3,9 C 90 % 1018,5 hPa 0,0 l/m 0 min 0 min 0 W/m 29,3 km/h (5 Bft)
19.12.2014 22:02 5,5 C 3,9 C 90 % 1018,5 hPa 0,0 l/m 0 min 0 min 0 W/m 20,9 km/h (4 Bft)
19.12.2014 22:04 5,5 C 3,9 C 90 % 1018,5 hPa 0,0 l/m 0 min 0 min 0 W/m 29,3 km/h (5 Bft)
19.12.2014 22:06 5,5 C 3,9 C 90 % 1018,6 hPa 0,0 l/m 0 min 0 min 0 W/m 29,3 km/h (5 Bft)
19.12.2014 22:08 5,5 C 3,9 C 90 % 1018,6 hPa 0,0 l/m 0 min 0 min 0 W/m 27,2 km/h (4 Bft)
19.12.2014 22:10 5,5 C 3,9 C 90 % 1018,5 hPa 0,0 l/m 0 min 0 min 0 W/m 23,0 km/h (4 Bft)
19.12.2014 22:12 5,5 C 3,9 C 90 % 1018,6 hPa 0,0 l/m 0 min 0 min 0 W/m 25,1 km/h (4 Bft)
19.12.2014 22:14 5,5 C 3,9 C 89 % 1018,6 hPa 0,0 l/m 0 min 0 min 0 W/m 20,9 km/h (4 Bft)
19.12.2014 22:16 5,5 C 3,9 C 89 % 1018,6 hPa 0,0 l/m 0 min 0 min 0 W/m 27,2 km/h (4 Bft)
19.12.2014 22:18 5,5 C 3,9 C 89 % 1018,7 hPa 0,0 l/m 0 min 0 min 0 W/m 25,1 km/h (4 Bft)
19.12.2014 22:20 5,5 C 3,9 C 89 % 1018,7 hPa 0,0 l/m 0 min 0 min 0 W/m 18,8 km/h (3 Bft)
19.12.2014 22:22 5,5 C 3,9 C 89 % 1018,8 hPa 0,0 l/m 0 min 0 min 0 W/m 18,8 km/h (3 Bft)
19.12.2014 22:24 5,4 C 3,9 C 89 % 1018,8 hPa 0,0 l/m 0 min 0 min 0 W/m 25,1 km/h (4 Bft)
19.12.2014 22:26 5,4 C 3,9 C 89 % 1018,9 hPa 0,0 l/m 0 min 0 min 0 W/m 29,3 km/h (5 Bft)
19.12.2014 22:28 5,4 C 3,9 C 89 % 1018,8 hPa 0,0 l/m 0 min 0 min 0 W/m 31,4 km/h (5 Bft)
19.12.2014 22:30 5,4 C 3,9 C 89 % 1018,9 hPa 0,0 l/m 0 min 0 min 0 W/m 27,2 km/h (4 Bft)
19.12.2014 22:32 5,4 C 3,9 C 89 % 1018,9 hPa 0,0 l/m 0 min 0 min 0 W/m 29,3 km/h (5 Bft)
19.12.2014 22:34 5,4 C 3,9 C 89 % 1019,0 hPa 0,0 l/m 0 min 0 min 0 W/m 31,4 km/h (5 Bft)
19.12.2014 22:36 5,4 C 3,9 C 89 % 1019,1 hPa 0,0 l/m 0 min 0 min 0 W/m 20,9 km/h (4 Bft)
19.12.2014 22:38 5,4 C 3,9 C 89 % 1019,1 hPa 0,0 l/m 0 min 0 min 0 W/m 23,0 km/h (4 Bft)
19.12.2014 22:40 5,4 C 3,9 C 89 % 1019,0 hPa 0,0 l/m 0 min 0 min 0 W/m 20,9 km/h (4 Bft)
19.12.2014 22:42 5,4 C 3,9 C 89 % 1019,1 hPa 0,0 l/m 0 min 0 min 0 W/m 18,8 km/h (3 Bft)
19.12.2014 22:44 5,4 C 3,9 C 89 % 1019,0 hPa 0,0 l/m 0 min 0 min 0 W/m 23,0 km/h (4 Bft)
19.12.2014 22:46 5,4 C 3,9 C 89 % 1019,0 hPa 0,0 l/m 0 min 0 min 0 W/m 29,3 km/h (5 Bft)
19.12.2014 22:48 5,4 C 3,9 C 89 % 1019,0 hPa 0,0 l/m 0 min 0 min 0 W/m 29,3 km/h (5 Bft)
19.12.2014 22:50 5,4 C 3,9 C 89 % 1018,9 hPa 0,0 l/m 0 min 0 min 0 W/m 25,1 km/h (4 Bft)
19.12.2014 22:52 5,4 C 3,9 C 89 % 1018,9 hPa 0,0 l/m 0 min 0 min 0 W/m 25,1 km/h (4 Bft)
19.12.2014 22:54 5,4 C 3,9 C 89 % 1019,0 hPa 0,0 l/m 0 min 0 min 0 W/m 27,2 km/h (4 Bft)
19.12.2014 22:56 5,4 C 3,9 C 89 % 1019,0 hPa 0,0 l/m 0 min 0 min 0 W/m 25,1 km/h (4 Bft)
19.12.2014 22:58 5,4 C 3,9 C 89 % 1019,0 hPa 0,0 l/m 0 min 0 min 0 W/m 29,3 km/h (5 Bft)
19.12.2014 23:00 5,4 C 3,9 C 89 % 1019,2 hPa 0,0 l/m 0 min 0 min 0 W/m 23,0 km/h (4 Bft)
19.12.2014 23:02 5,4 C 3,9 C 89 % 1019,1 hPa 0,0 l/m 0 min 0 min 0 W/m 23,0 km/h (4 Bft)
19.12.2014 23:04 5,3 C 3,9 C 89 % 1019,1 hPa 0,0 l/m 0 min 0 min 0 W/m 23,0 km/h (4 Bft)
19.12.2014 23:06 5,3 C 3,9 C 89 % 1019,2 hPa 0,0 l/m 0 min 0 min 0 W/m 25,1 km/h (4 Bft)
19.12.2014 23:08 5,3 C 3,9 C 89 % 1019,2 hPa 0,0 l/m 0 min 0 min 0 W/m 20,9 km/h (4 Bft)
19.12.2014 23:10 5,3 C 3,9 C 89 % 1019,2 hPa 0,0 l/m 0 min 0 min 0 W/m 23,0 km/h (4 Bft)
19.12.2014 23:12 5,3 C 3,9 C 89 % 1019,3 hPa 0,0 l/m 0 min 0 min 0 W/m 23,0 km/h (4 Bft)
19.12.2014 23:14 5,3 C 3,9 C 89 % 1019,3 hPa 0,0 l/m 0 min 0 min 0 W/m 25,1 km/h (4 Bft)
19.12.2014 23:16 5,3 C 3,9 C 89 % 1019,2 hPa 0,0 l/m 0 min 0 min 0 W/m 27,2 km/h (4 Bft)
19.12.2014 23:18 5,3 C 3,9 C 89 % 1019,2 hPa 0,0 l/m 0 min 0 min 0 W/m 20,9 km/h (4 Bft)
19.12.2014 23:20 5,3 C 3,9 C 89 % 1019,2 hPa 0,0 l/m 0 min 0 min 0 W/m 20,9 km/h (4 Bft)
19.12.2014 23:22 5,2 C 3,9 C 89 % 1019,2 hPa 0,0 l/m 0 min 0 min 0 W/m 23,0 km/h (4 Bft)
19.12.2014 23:24 5,2 C 3,9 C 89 % 1019,3 hPa 0,0 l/m 0 min 0 min 0 W/m 25,1 km/h (4 Bft)
19.12.2014 23:26 5,2 C 3,9 C 89 % 1019,2 hPa 0,0 l/m 0 min 0 min 0 W/m 29,3 km/h (5 Bft)
19.12.2014 23:28 5,2 C 3,9 C 89 % 1019,2 hPa 0,0 l/m 0 min 0 min 0 W/m 25,1 km/h (4 Bft)
19.12.2014 23:30 5,2 C 3,9 C 89 % 1019,2 hPa 0,0 l/m 0 min 0 min 0 W/m 23,0 km/h (4 Bft)
19.12.2014 23:32 5,2 C 3,9 C 89 % 1019,2 hPa 0,0 l/m 0 min 0 min 0 W/m 31,4 km/h (5 Bft)
19.12.2014 23:34 5,2 C 3,9 C 89 % 1019,2 hPa 0,0 l/m 0 min 0 min 0 W/m 25,1 km/h (4 Bft)
19.12.2014 23:36 5,2 C 3,9 C 89 % 1019,2 hPa 0,0 l/m 0 min 0 min 0 W/m 29,3 km/h (5 Bft)
19.12.2014 23:38 5,2 C 3,9 C 89 % 1019,1 hPa 0,0 l/m 0 min 0 min 0 W/m 35,6 km/h (5 Bft)
19.12.2014 23:40 5,2 C 3,9 C 89 % 1019,2 hPa 0,0 l/m 0 min 0 min 0 W/m 27,2 km/h (4 Bft)
19.12.2014 23:42 5,2 C 3,9 C 89 % 1019,1 hPa 0,0 l/m 0 min 0 min 0 W/m 31,4 km/h (5 Bft)
19.12.2014 23:44 5,2 C 3,9 C 89 % 1019,1 hPa 0,0 l/m 0 min 0 min 0 W/m 31,4 km/h (5 Bft)
19.12.2014 23:46 5,2 C 3,9 C 89 % 1019,2 hPa 0,0 l/m 0 min 0 min 0 W/m 46,0 km/h (6 Bft)
19.12.2014 23:48 5,2 C 3,9 C 89 % 1019,2 hPa 0,0 l/m 0 min 0 min 0 W/m 41,8 km/h (6 Bft)
19.12.2014 23:50 5,2 C 3,9 C 89 % 1019,2 hPa 0,0 l/m 0 min 0 min 0 W/m 37,7 km/h (5 Bft)
19.12.2014 23:52 5,2 C 3,9 C 89 % 1019,2 hPa 0,0 l/m 0 min 0 min 0 W/m 35,6 km/h (5 Bft)
19.12.2014 23:54 5,2 C 3,9 C 89 % 1019,2 hPa 0,0 l/m 0 min 0 min 0 W/m 35,6 km/h (5 Bft)
19.12.2014 23:56 5,2 C 3,9 C 89 % 1019,3 hPa 0,0 l/m 0 min 0 min 0 W/m 33,5 km/h (5 Bft)
19.12.2014 23:58 5,2 C 3,9 C 89 % 1019,3 hPa 0,0 l/m 0 min 0 min 0 W/m 27,2 km/h (4 Bft)
_ Min-Zeit 23:22 18:16 16:56 08:10 - - - - 19:02
Minimum _ 5,2 C 3,9 C 88 % 1009,3 hPa - - - - 8,4 km/h (2 Bft)
_ Max-Zeit 00:14 00:00 10:54 23:12 13:06 16:04 00:00 10:40 00:12
Maximum _ 12,1 C 10,6 C 97 % 1019,3 hPa 0,4 l/m 2 min 2 min 69 W/m 62,8 km/h
W-SW (8 Bft)
Durchschnitt _ 9,2 C 7,6 C 93 % 1012,8 hPa #7,8 l/m #10 min. #13:45 h 26 W/m 33,5 km/h (5 Bft)
© 2015 W. Hausmann